Multibeam Report for EX1105


Ship Name: Okeanos Explorer
Chief Scientist: Malik, Mashkoor
NOAA/OAR/OER
Source Organization: National Oceanic and Atmospheric Administration (NOAA)
Start Date: 2011-08-22
End Date: 2011-09-10


View ISO Metadata

Visit the full NCEI Bathymetry Viewer


Multibeam Bathymetry

Cruise Details

Project: Gulf of Mexico Water Column Exploration
Instrument: Simrad EM302

Data Quality

Number of Files: 1212
Number of Records: 1353476
BATHYMETRY DATA Quantity Percentage
Number of Beams 275903856 100%
Number of Good Beams 254859781 92.37%
Number of Zero Beams 0 0%
Number of Flagged Beams 21044075 7.63%

Navigation Totals

Total Time: 406.5362 hours
Total Track Length: 6716.2175 km
Average Speed: 16.521 km/hr (8.9206 knots)

Cruise Bounds

Northern Extent: 30.093752
Southern Extent: 23.864225
Western Extent: -88.5686
Eastern Extent: -81.72092

Limits

Minimum Sonar Depth 0 Maximum Sonar Depth 13.2483
Minimum Altitude 0 Maximum Altitude 5506.7729
Minimum Depth 3.9869 Maximum Depth 5511.8643

File Information

Full Resolution Bathymetry as collected (raw): 591

Files File Size Description
0000_20110823_003743_EX1105_MB.all.mb58.gz 55.66MB Kongsberg multibeam vendor format
0000_20110823_062314_EX1105_MB.all.mb58.gz 17.06MB Kongsberg multibeam vendor format
0000_20110823_175500_EX1105_MB.all.mb58.gz 22.80MB Kongsberg multibeam vendor format
0000_20110824_205708_EX1105_MB.all.mb58.gz 134.95MB Kongsberg multibeam vendor format
0000_20110825_213114_EX1105_MB.all.mb58.gz 85.40MB Kongsberg multibeam vendor format
0000_20110825_235407_EX1105_MB.all.mb58.gz 40.34MB Kongsberg multibeam vendor format
0001_20110823_011516_EX1105_MB.all.mb58.gz 170.32MB Kongsberg multibeam vendor format
0001_20110823_064004_EX1105_MB.all.mb58.gz 184.67MB Kongsberg multibeam vendor format
0001_20110823_182821_EX1105_MB.all.mb58.gz 57.59MB Kongsberg multibeam vendor format
0001_20110826_003851_EX1105_MB.all.mb58.gz 12.58MB Kongsberg multibeam vendor format
0002_20110823_093647_EX1105_MB.all.mb58.gz 168.23MB Kongsberg multibeam vendor format
0002_20110823_185807_EX1105_MB.all.mb58.gz 467.16MB Kongsberg multibeam vendor format
0002_20110824_225936_EX1105_MB.all.mb58.gz 59.89MB Kongsberg multibeam vendor format
0002_20110826_010051_EX1105_MB.all.mb58.gz 30.63MB Kongsberg multibeam vendor format
0003_20110823_153422_EX1105_MB.all.mb58.gz 173.97MB Kongsberg multibeam vendor format
0003_20110824_005807_EX1105_MB.all.mb58.gz 57.03MB Kongsberg multibeam vendor format
0003_20110824_235421_EX1105_MB.all.mb58.gz 338.85MB Kongsberg multibeam vendor format
0003_20110826_013131_EX1105_MB.all.mb58.gz 29.75MB Kongsberg multibeam vendor format
0004_20110824_015105_EX1105_MB.all.mb58.gz 419.51MB Kongsberg multibeam vendor format
0004_20110825_055420_EX1105_MB.all.mb58.gz 362.09MB Kongsberg multibeam vendor format
0004_20110826_020053_EX1105_MB.all.mb58.gz 62.64MB Kongsberg multibeam vendor format
0005_20110824_075106_EX1105_MB.all.mb58.gz 315.80MB Kongsberg multibeam vendor format
0005_20110825_115419_EX1105_MB.all.mb58.gz 95.21MB Kongsberg multibeam vendor format
0005_20110826_030052_EX1105_MB.all.mb58.gz 62.86MB Kongsberg multibeam vendor format
0006_20110824_154752_EX1105_MB.all.mb58.gz 75.44MB Kongsberg multibeam vendor format
0006_20110825_135501_EX1105_MB.all.mb58.gz 119.32MB Kongsberg multibeam vendor format
0006_20110826_040053_EX1105_MB.all.mb58.gz 26.95MB Kongsberg multibeam vendor format
0007_20110824_164128_EX1105_MB.all.mb58.gz 392.82MB Kongsberg multibeam vendor format
0007_20110825_172156_EX1105_MB.all.mb58.gz 151.75MB Kongsberg multibeam vendor format
0007_20110826_043844_EX1105_MB.all.mb58.gz 20.85MB Kongsberg multibeam vendor format
0008_20110826_050038_EX1105_MB.all.mb58.gz 56.97MB Kongsberg multibeam vendor format
0009_20110826_060041_EX1105_MB.all.mb58.gz 58.81MB Kongsberg multibeam vendor format
0010_20110826_070041_EX1105_MB.all.mb58.gz 55.83MB Kongsberg multibeam vendor format
0011_20110826_080039_EX1105_MB.all.mb58.gz 52.77MB Kongsberg multibeam vendor format
0012_20110826_090040_EX1105_MB.all.mb58.gz 53.17MB Kongsberg multibeam vendor format
0013_20110826_100041_EX1105_MB.all.mb58.gz 53.62MB Kongsberg multibeam vendor format
0014_20110826_110044_EX1105_MB.all.mb58.gz 54.92MB Kongsberg multibeam vendor format
0015_20110826_120041_EX1105_MB.all.mb58.gz 51.27MB Kongsberg multibeam vendor format
0016_20110826_125439_EX1105_MB.all.mb58.gz 20.27MB Kongsberg multibeam vendor format
0017_20110826_131534_EX1105_MB.all.mb58.gz 45.04MB Kongsberg multibeam vendor format
0018_20110826_140222_EX1105_MB.all.mb58.gz 43.76MB Kongsberg multibeam vendor format
0019_20110826_144810_EX1105_MB.all.mb58.gz 7.56MB Kongsberg multibeam vendor format
0020_20110826_145604_EX1105_MB.all.mb58.gz 51.36MB Kongsberg multibeam vendor format
0021_20110826_155126_EX1105_MB.all.mb58.gz 10.02MB Kongsberg multibeam vendor format
0022_20110826_160206_EX1105_MB.all.mb58.gz 55.97MB Kongsberg multibeam vendor format
0023_20110826_170207_EX1105_MB.all.mb58.gz 1.23MB Kongsberg multibeam vendor format
0024_20110826_170323_EX1105_MB.all.mb58.gz 58.84MB Kongsberg multibeam vendor format
0025_20110826_180326_EX1105_MB.all.mb58.gz 16.38MB Kongsberg multibeam vendor format
0026_20110826_181934_EX1105_MB.all.mb58.gz 9.92MB Kongsberg multibeam vendor format
0027_20110826_182904_EX1105_MB.all.mb58.gz 36.74MB Kongsberg multibeam vendor format
0028_20110826_190544_EX1105_MB.all.mb58.gz 47.18MB Kongsberg multibeam vendor format
0029_20110826_195532_EX1105_MB.all.mb58.gz 9.00MB Kongsberg multibeam vendor format
0030_20110826_200657_EX1105_MB.all.mb58.gz 42.46MB Kongsberg multibeam vendor format
0031_20110826_210052_EX1105_MB.all.mb58.gz 17.20MB Kongsberg multibeam vendor format
0032_20110826_212229_EX1105_MB.all.mb58.gz 6.91MB Kongsberg multibeam vendor format
0033_20110826_213054_EX1105_MB.all.mb58.gz 28.17MB Kongsberg multibeam vendor format
0034_20110826_220618_EX1105_MB.all.mb58.gz 16.03MB Kongsberg multibeam vendor format
0035_20110826_222649_EX1105_MB.all.mb58.gz 12.67MB Kongsberg multibeam vendor format
0036_20110826_223755_EX1105_MB.all.mb58.gz 31.60MB Kongsberg multibeam vendor format
0037_20110826_230259_EX1105_MB.all.mb58.gz 22.72MB Kongsberg multibeam vendor format
0038_20110826_232043_EX1105_MB.all.mb58.gz 5.65MB Kongsberg multibeam vendor format
0039_20110826_232504_EX1105_MB.all.mb58.gz 26.57MB Kongsberg multibeam vendor format
0040_20110826_234556_EX1105_MB.all.mb58.gz 15.25MB Kongsberg multibeam vendor format
0041_20110826_235801_EX1105_MB.all.mb58.gz 64.61MB Kongsberg multibeam vendor format
0042_20110827_005209_EX1105_MB.all.mb58.gz 15.55MB Kongsberg multibeam vendor format
0043_20110827_010535_EX1105_MB.all.mb58.gz 72.35MB Kongsberg multibeam vendor format
0044_20110827_020536_EX1105_MB.all.mb58.gz 30.86MB Kongsberg multibeam vendor format
0046_20110827_022947_EX1105_MB.all.mb58.gz 11.41MB Kongsberg multibeam vendor format
0047_20110827_023837_EX1105_MB.all.mb58.gz 11.24MB Kongsberg multibeam vendor format
0048_20110827_024731_EX1105_MB.all.mb58.gz 36.64MB Kongsberg multibeam vendor format
0049_20110827_032505_EX1105_MB.all.mb58.gz 7.43MB Kongsberg multibeam vendor format
0050_20110827_033327_EX1105_MB.all.mb58.gz 26.91MB Kongsberg multibeam vendor format
0051_20110827_040742_EX1105_MB.all.mb58.gz 10.51MB Kongsberg multibeam vendor format
0052_20110827_042254_EX1105_MB.all.mb58.gz 4.88MB Kongsberg multibeam vendor format
0053_20110827_042859_EX1105_MB.all.mb58.gz 25.74MB Kongsberg multibeam vendor format
0054_20110827_050134_EX1105_MB.all.mb58.gz 10.56MB Kongsberg multibeam vendor format
0055_20110827_051454_EX1105_MB.all.mb58.gz 5.67MB Kongsberg multibeam vendor format
0056_20110827_052105_EX1105_MB.all.mb58.gz 46.59MB Kongsberg multibeam vendor format
0057_20110827_060851_EX1105_MB.all.mb58.gz 10.95MB Kongsberg multibeam vendor format
0058_20110827_061722_EX1105_MB.all.mb58.gz 56.79MB Kongsberg multibeam vendor format
0059_20110827_071134_EX1105_MB.all.mb58.gz 55.63MB Kongsberg multibeam vendor format
0060_20110827_075356_EX1105_MB.all.mb58.gz 10.83MB Kongsberg multibeam vendor format
0061_20110827_080201_EX1105_MB.all.mb58.gz 47.03MB Kongsberg multibeam vendor format
0062_20110827_083907_EX1105_MB.all.mb58.gz 9.17MB Kongsberg multibeam vendor format
0063_20110827_084829_EX1105_MB.all.mb58.gz 48.39MB Kongsberg multibeam vendor format
0064_20110827_093802_EX1105_MB.all.mb58.gz 9.40MB Kongsberg multibeam vendor format
0065_20110827_094722_EX1105_MB.all.mb58.gz 41.25MB Kongsberg multibeam vendor format
0066_20110827_103855_EX1105_MB.all.mb58.gz 27.06MB Kongsberg multibeam vendor format
0067_20110827_110023_EX1105_MB.all.mb58.gz 39.84MB Kongsberg multibeam vendor format
0068_20110827_113025_EX1105_MB.all.mb58.gz 11.42MB Kongsberg multibeam vendor format
0069_20110827_113858_EX1105_MB.all.mb58.gz 28.17MB Kongsberg multibeam vendor format
0070_20110827_120005_EX1105_MB.all.mb58.gz 30.94MB Kongsberg multibeam vendor format
0071_20110827_122356_EX1105_MB.all.mb58.gz 5.01MB Kongsberg multibeam vendor format
0072_20110827_122915_EX1105_MB.all.mb58.gz 36.76MB Kongsberg multibeam vendor format
0073_20110827_130014_EX1105_MB.all.mb58.gz 37.08MB Kongsberg multibeam vendor format
0074_20110827_133205_EX1105_MB.all.mb58.gz 34.13MB Kongsberg multibeam vendor format
0075_20110827_140141_EX1105_MB.all.mb58.gz 74.03MB Kongsberg multibeam vendor format
0076_20110827_150120_EX1105_MB.all.mb58.gz 78.44MB Kongsberg multibeam vendor format
0077_20110827_160120_EX1105_MB.all.mb58.gz 2.89MB Kongsberg multibeam vendor format
0078_20110827_202800_EX1105_MB.all.mb58.gz 42.06MB Kongsberg multibeam vendor format
0079_20110827_211022_EX1105_MB.all.mb58.gz 1.14MB Kongsberg multibeam vendor format
0080_20110827_212020_EX1105_MB.all.mb58.gz 49.46MB Kongsberg multibeam vendor format
0081_20110827_221938_EX1105_MB.all.mb58.gz 2.14MB Kongsberg multibeam vendor format
0082_20110827_222149_EX1105_MB.all.mb58.gz 55.24MB Kongsberg multibeam vendor format
0083_20110827_230434_EX1105_MB.all.mb58.gz 8.50MB Kongsberg multibeam vendor format
0084_20110827_231058_EX1105_MB.all.mb58.gz 59.07MB Kongsberg multibeam vendor format
0085_20110827_235705_EX1105_MB.all.mb58.gz 11.15MB Kongsberg multibeam vendor format
0086_20110828_000558_EX1105_MB.all.mb58.gz 63.09MB Kongsberg multibeam vendor format
0087_20110828_005500_EX1105_MB.all.mb58.gz 75.40MB Kongsberg multibeam vendor format
0088_20110828_015458_EX1105_MB.all.mb58.gz 18.08MB Kongsberg multibeam vendor format
0089_20110828_020950_EX1105_MB.all.mb58.gz 60.75MB Kongsberg multibeam vendor format
0090_20110828_030001_EX1105_MB.all.mb58.gz 71.26MB Kongsberg multibeam vendor format
0091_20110828_040004_EX1105_MB.all.mb58.gz 69.20MB Kongsberg multibeam vendor format
0092_20110828_050002_EX1105_MB.all.mb58.gz 19.13MB Kongsberg multibeam vendor format
0093_20110828_051641_EX1105_MB.all.mb58.gz 50.00MB Kongsberg multibeam vendor format
0094_20110828_060003_EX1105_MB.all.mb58.gz 67.72MB Kongsberg multibeam vendor format
0095_20110828_070001_EX1105_MB.all.mb58.gz 67.25MB Kongsberg multibeam vendor format
0096_20110828_080005_EX1105_MB.all.mb58.gz 42.39MB Kongsberg multibeam vendor format
0097_20110828_083824_EX1105_MB.all.mb58.gz 8.58MB Kongsberg multibeam vendor format
0098_20110828_084609_EX1105_MB.all.mb58.gz 15.29MB Kongsberg multibeam vendor format
0099_20110828_090005_EX1105_MB.all.mb58.gz 66.12MB Kongsberg multibeam vendor format
0100_20110828_100004_EX1105_MB.all.mb58.gz 65.79MB Kongsberg multibeam vendor format
0101_20110828_110002_EX1105_MB.all.mb58.gz 68.11MB Kongsberg multibeam vendor format
0102_20110828_120002_EX1105_MB.all.mb58.gz 12.33MB Kongsberg multibeam vendor format
0103_20110828_121045_EX1105_MB.all.mb58.gz 7.77MB Kongsberg multibeam vendor format
0104_20110828_121728_EX1105_MB.all.mb58.gz 63.17MB Kongsberg multibeam vendor format
0105_20110828_131231_EX1105_MB.all.mb58.gz 53.01MB Kongsberg multibeam vendor format
0106_20110828_140002_EX1105_MB.all.mb58.gz 67.01MB Kongsberg multibeam vendor format
0107_20110828_150003_EX1105_MB.all.mb58.gz 108.7KB Kongsberg multibeam vendor format
0108_20110828_150009_EX1105_MB.all.mb58.gz 26.24MB Kongsberg multibeam vendor format
0109_20110828_152358_EX1105_MB.all.mb58.gz 13.64MB Kongsberg multibeam vendor format
0110_20110828_153618_EX1105_MB.all.mb58.gz 27.23MB Kongsberg multibeam vendor format
0111_20110828_160103_EX1105_MB.all.mb58.gz 66.65MB Kongsberg multibeam vendor format
0112_20110828_170103_EX1105_MB.all.mb58.gz 66.90MB Kongsberg multibeam vendor format
0113_20110828_180047_EX1105_MB.all.mb58.gz 68.43MB Kongsberg multibeam vendor format
0114_20110828_190043_EX1105_MB.all.mb58.gz 329.9KB Kongsberg multibeam vendor format
0115_20110828_190100_EX1105_MB.all.mb58.gz 21.32MB Kongsberg multibeam vendor format
0116_20110828_191929_EX1105_MB.all.mb58.gz 50.29MB Kongsberg multibeam vendor format
0117_20110828_200320_EX1105_MB.all.mb58.gz 67.99MB Kongsberg multibeam vendor format
0118_20110828_210323_EX1105_MB.all.mb58.gz 63.38MB Kongsberg multibeam vendor format
0119_20110828_220000_EX1105_MB.all.mb58.gz 35.71MB Kongsberg multibeam vendor format
0120_20110828_223226_EX1105_MB.all.mb58.gz 18.80MB Kongsberg multibeam vendor format
0121_20110828_224928_EX1105_MB.all.mb58.gz 66.82MB Kongsberg multibeam vendor format
0122_20110828_234930_EX1105_MB.all.mb58.gz 12.01MB Kongsberg multibeam vendor format
0123_20110829_000001_EX1105_MB.all.mb58.gz 67.87MB Kongsberg multibeam vendor format
0124_20110829_010005_EX1105_MB.all.mb58.gz 68.48MB Kongsberg multibeam vendor format
0125_20110829_020003_EX1105_MB.all.mb58.gz 13.44MB Kongsberg multibeam vendor format
0126_20110829_021145_EX1105_MB.all.mb58.gz 19.93MB Kongsberg multibeam vendor format
0127_20110829_022901_EX1105_MB.all.mb58.gz 68.90MB Kongsberg multibeam vendor format
0128_20110829_032901_EX1105_MB.all.mb58.gz 67.62MB Kongsberg multibeam vendor format
0129_20110829_042900_EX1105_MB.all.mb58.gz 67.05MB Kongsberg multibeam vendor format
0130_20110829_052902_EX1105_MB.all.mb58.gz 55.44MB Kongsberg multibeam vendor format
0131_20110829_061952_EX1105_MB.all.mb58.gz 14.96MB Kongsberg multibeam vendor format
0132_20110829_063334_EX1105_MB.all.mb58.gz 65.48MB Kongsberg multibeam vendor format
0133_20110829_073332_EX1105_MB.all.mb58.gz 67.41MB Kongsberg multibeam vendor format
0134_20110829_083333_EX1105_MB.all.mb58.gz 68.12MB Kongsberg multibeam vendor format
0135_20110829_093335_EX1105_MB.all.mb58.gz 66.40MB Kongsberg multibeam vendor format
0136_20110829_103141_EX1105_MB.all.mb58.gz 14.15MB Kongsberg multibeam vendor format
0137_20110829_104354_EX1105_MB.all.mb58.gz 19.15MB Kongsberg multibeam vendor format
0138_20110829_110031_EX1105_MB.all.mb58.gz 69.20MB Kongsberg multibeam vendor format
0139_20110829_120031_EX1105_MB.all.mb58.gz 47.07MB Kongsberg multibeam vendor format
0140_20110829_201944_EX1105_MB.all.mb58.gz 15.27MB Kongsberg multibeam vendor format
0141_20110829_210239_EX1105_MB.all.mb58.gz 68.12MB Kongsberg multibeam vendor format
0142_20110829_220237_EX1105_MB.all.mb58.gz 67.49MB Kongsberg multibeam vendor format
0143_20110829_230238_EX1105_MB.all.mb58.gz 7.02MB Kongsberg multibeam vendor format
0144_20110829_230858_EX1105_MB.all.mb58.gz 66.18MB Kongsberg multibeam vendor format
0145_20110830_000859_EX1105_MB.all.mb58.gz 1.05MB Kongsberg multibeam vendor format
0146_20110830_000956_EX1105_MB.all.mb58.gz 48.99MB Kongsberg multibeam vendor format
0147_20110830_005416_EX1105_MB.all.mb58.gz 15.98MB Kongsberg multibeam vendor format
0148_20110830_010821_EX1105_MB.all.mb58.gz 66.54MB Kongsberg multibeam vendor format
0149_20110830_020822_EX1105_MB.all.mb58.gz 66.26MB Kongsberg multibeam vendor format
0150_20110830_030817_EX1105_MB.all.mb58.gz 19.92MB Kongsberg multibeam vendor format
0151_20110830_032600_EX1105_MB.all.mb58.gz 67.66MB Kongsberg multibeam vendor format
0152_20110830_042559_EX1105_MB.all.mb58.gz 68.36MB Kongsberg multibeam vendor format
0153_20110830_052600_EX1105_MB.all.mb58.gz 68.87MB Kongsberg multibeam vendor format
0154_20110830_062558_EX1105_MB.all.mb58.gz 20.07MB Kongsberg multibeam vendor format
0155_20110830_064330_EX1105_MB.all.mb58.gz 9.35MB Kongsberg multibeam vendor format
0156_20110830_065135_EX1105_MB.all.mb58.gz 11.14MB Kongsberg multibeam vendor format
0157_20110830_070119_EX1105_MB.all.mb58.gz 68.29MB Kongsberg multibeam vendor format
0158_20110830_080050_EX1105_MB.all.mb58.gz 68.80MB Kongsberg multibeam vendor format
0159_20110830_090050_EX1105_MB.all.mb58.gz 67.78MB Kongsberg multibeam vendor format
0160_20110830_100047_EX1105_MB.all.mb58.gz 57.61MB Kongsberg multibeam vendor format
0161_20110830_105219_EX1105_MB.all.mb58.gz 10.55MB Kongsberg multibeam vendor format
0162_20110830_110148_EX1105_MB.all.mb58.gz 66.91MB Kongsberg multibeam vendor format
0163_20110830_120151_EX1105_MB.all.mb58.gz 67.97MB Kongsberg multibeam vendor format
0164_20110830_130153_EX1105_MB.all.mb58.gz 69.26MB Kongsberg multibeam vendor format
0165_20110830_140148_EX1105_MB.all.mb58.gz 75.76MB Kongsberg multibeam vendor format
0166_20110830_150148_EX1105_MB.all.mb58.gz 50.91MB Kongsberg multibeam vendor format
0168_20110830_153927_EX1105_MB.all.mb58.gz 29.80MB Kongsberg multibeam vendor format
0169_20110830_160106_EX1105_MB.all.mb58.gz 56.75MB Kongsberg multibeam vendor format
0170_20110830_164219_EX1105_MB.all.mb58.gz 76.95MB Kongsberg multibeam vendor format
0171_20110830_174223_EX1105_MB.all.mb58.gz 70.15MB Kongsberg multibeam vendor format
0172_20110830_184219_EX1105_MB.all.mb58.gz 10.19MB Kongsberg multibeam vendor format
0173_20110830_185117_EX1105_MB.all.mb58.gz 68.45MB Kongsberg multibeam vendor format
0174_20110830_195119_EX1105_MB.all.mb58.gz 71.90MB Kongsberg multibeam vendor format
0175_20110830_205119_EX1105_MB.all.mb58.gz 16.83MB Kongsberg multibeam vendor format
0176_20110830_210420_EX1105_MB.all.mb58.gz 46.17MB Kongsberg multibeam vendor format
0177_20110830_213831_EX1105_MB.all.mb58.gz 26.46MB Kongsberg multibeam vendor format
0178_20110830_215736_EX1105_MB.all.mb58.gz 10.57MB Kongsberg multibeam vendor format
0179_20110830_220517_EX1105_MB.all.mb58.gz 5.39MB Kongsberg multibeam vendor format
0180_20110830_220912_EX1105_MB.all.mb58.gz 24.65MB Kongsberg multibeam vendor format
0181_20110830_222656_EX1105_MB.all.mb58.gz 13.75MB Kongsberg multibeam vendor format
0182_20110830_223647_EX1105_MB.all.mb58.gz 4.75MB Kongsberg multibeam vendor format
0183_20110830_224009_EX1105_MB.all.mb58.gz 51.62MB Kongsberg multibeam vendor format
0184_20110830_231828_EX1105_MB.all.mb58.gz 28.06MB Kongsberg multibeam vendor format
0185_20110830_233955_EX1105_MB.all.mb58.gz 59.01MB Kongsberg multibeam vendor format
0186_20110831_002630_EX1105_MB.all.mb58.gz 72.93MB Kongsberg multibeam vendor format
0187_20110831_012631_EX1105_MB.all.mb58.gz 8.90MB Kongsberg multibeam vendor format
0188_20110831_013352_EX1105_MB.all.mb58.gz 34.94MB Kongsberg multibeam vendor format
0189_20110831_020118_EX1105_MB.all.mb58.gz 7.33MB Kongsberg multibeam vendor format
0190_20110831_020718_EX1105_MB.all.mb58.gz 15.34MB Kongsberg multibeam vendor format
0191_20110831_021952_EX1105_MB.all.mb58.gz 42.84MB Kongsberg multibeam vendor format
0192_20110831_025336_EX1105_MB.all.mb58.gz 14.67MB Kongsberg multibeam vendor format
0193_20110831_030540_EX1105_MB.all.mb58.gz 37.33MB Kongsberg multibeam vendor format
0194_20110831_033448_EX1105_MB.all.mb58.gz 11.25MB Kongsberg multibeam vendor format
0195_20110831_034347_EX1105_MB.all.mb58.gz 41.81MB Kongsberg multibeam vendor format
0197_20110831_041702_EX1105_MB.all.mb58.gz 10.91MB Kongsberg multibeam vendor format
0198_20110831_042550_EX1105_MB.all.mb58.gz 40.92MB Kongsberg multibeam vendor format
0199_20110831_045809_EX1105_MB.all.mb58.gz 49.43MB Kongsberg multibeam vendor format
0200_20110831_053722_EX1105_MB.all.mb58.gz 49.02MB Kongsberg multibeam vendor format
0201_20110831_061416_EX1105_MB.all.mb58.gz 7.34MB Kongsberg multibeam vendor format
0202_20110831_061923_EX1105_MB.all.mb58.gz 62.07MB Kongsberg multibeam vendor format
0203_20110831_070651_EX1105_MB.all.mb58.gz 7.26MB Kongsberg multibeam vendor format
0204_20110831_071238_EX1105_MB.all.mb58.gz 62.73MB Kongsberg multibeam vendor format
0205_20110831_080033_EX1105_MB.all.mb58.gz 9.67MB Kongsberg multibeam vendor format
0206_20110831_080708_EX1105_MB.all.mb58.gz 68.57MB Kongsberg multibeam vendor format
0207_20110831_090003_EX1105_MB.all.mb58.gz 8.78MB Kongsberg multibeam vendor format
0208_20110831_090713_EX1105_MB.all.mb58.gz 10.61MB Kongsberg multibeam vendor format
0209_20110831_091539_EX1105_MB.all.mb58.gz 76.92MB Kongsberg multibeam vendor format
0210_20110831_101540_EX1105_MB.all.mb58.gz 4.83MB Kongsberg multibeam vendor format
0211_20110831_101903_EX1105_MB.all.mb58.gz 12.56MB Kongsberg multibeam vendor format
0212_20110831_102736_EX1105_MB.all.mb58.gz 44.05MB Kongsberg multibeam vendor format
0213_20110831_110004_EX1105_MB.all.mb58.gz 46.05MB Kongsberg multibeam vendor format
0214_20110831_113734_EX1105_MB.all.mb58.gz 11.29MB Kongsberg multibeam vendor format
0215_20110831_114647_EX1105_MB.all.mb58.gz 75.06MB Kongsberg multibeam vendor format
0216_20110831_124647_EX1105_MB.all.mb58.gz 15.81MB Kongsberg multibeam vendor format
0217_20110831_125743_EX1105_MB.all.mb58.gz 29.96MB Kongsberg multibeam vendor format
0218_20110831_131802_EX1105_MB.all.mb58.gz 58.35MB Kongsberg multibeam vendor format
0219_20110831_140122_EX1105_MB.all.mb58.gz 49.36MB Kongsberg multibeam vendor format
0220_20110831_144209_EX1105_MB.all.mb58.gz 9.92MB Kongsberg multibeam vendor format
0221_20110831_145024_EX1105_MB.all.mb58.gz 72.97MB Kongsberg multibeam vendor format
0222_20110831_155027_EX1105_MB.all.mb58.gz 33.60MB Kongsberg multibeam vendor format
0223_20110831_161458_EX1105_MB.all.mb58.gz 10.74MB Kongsberg multibeam vendor format
0224_20110831_162215_EX1105_MB.all.mb58.gz 77.38MB Kongsberg multibeam vendor format
0225_20110831_172216_EX1105_MB.all.mb58.gz 29.13MB Kongsberg multibeam vendor format
0226_20110831_174629_EX1105_MB.all.mb58.gz 9.07MB Kongsberg multibeam vendor format
0227_20110831_175403_EX1105_MB.all.mb58.gz 73.64MB Kongsberg multibeam vendor format
0228_20110831_185404_EX1105_MB.all.mb58.gz 29.91MB Kongsberg multibeam vendor format
0229_20110831_191611_EX1105_MB.all.mb58.gz 84.52MB Kongsberg multibeam vendor format
0230_20110831_201612_EX1105_MB.all.mb58.gz 59.93MB Kongsberg multibeam vendor format
0231_20110831_210131_EX1105_MB.all.mb58.gz 52.63MB Kongsberg multibeam vendor format
0232_20110831_214501_EX1105_MB.all.mb58.gz 73.93MB Kongsberg multibeam vendor format
0233_20110831_224502_EX1105_MB.all.mb58.gz 21.25MB Kongsberg multibeam vendor format
0234_20110831_230044_EX1105_MB.all.mb58.gz 25.25MB Kongsberg multibeam vendor format
0235_20110831_231922_EX1105_MB.all.mb58.gz 9.80MB Kongsberg multibeam vendor format
0236_20110831_232628_EX1105_MB.all.mb58.gz 10.66MB Kongsberg multibeam vendor format
0237_20110831_233410_EX1105_MB.all.mb58.gz 77.77MB Kongsberg multibeam vendor format
0238_20110901_003411_EX1105_MB.all.mb58.gz 23.49MB Kongsberg multibeam vendor format
0239_20110901_005338_EX1105_MB.all.mb58.gz 8.89MB Kongsberg multibeam vendor format
0240_20110901_010104_EX1105_MB.all.mb58.gz 62.94MB Kongsberg multibeam vendor format
0241_20110901_015031_EX1105_MB.all.mb58.gz 23.45MB Kongsberg multibeam vendor format
0242_20110901_020749_EX1105_MB.all.mb58.gz 21.85MB Kongsberg multibeam vendor format
0243_20110901_022334_EX1105_MB.all.mb58.gz 7.80MB Kongsberg multibeam vendor format
0244_20110901_022908_EX1105_MB.all.mb58.gz 10.02MB Kongsberg multibeam vendor format
0245_20110901_023615_EX1105_MB.all.mb58.gz 5.88MB Kongsberg multibeam vendor format
0246_20110901_030002_EX1105_MB.all.mb58.gz 76.63MB Kongsberg multibeam vendor format
0247_20110901_040005_EX1105_MB.all.mb58.gz 32.75MB Kongsberg multibeam vendor format
0248_20110901_042722_EX1105_MB.all.mb58.gz 3.04MB Kongsberg multibeam vendor format
0249_20110901_042955_EX1105_MB.all.mb58.gz 24.27MB Kongsberg multibeam vendor format
0250_20110901_045005_EX1105_MB.all.mb58.gz 12.03MB Kongsberg multibeam vendor format
0251_20110901_054310_EX1105_MB.all.mb58.gz 23.29MB Kongsberg multibeam vendor format
0252_20110901_060517_EX1105_MB.all.mb58.gz 2.50MB Kongsberg multibeam vendor format
0253_20110901_061514_EX1105_MB.all.mb58.gz 9.31MB Kongsberg multibeam vendor format
0254_20110901_064412_EX1105_MB.all.mb58.gz 44.96MB Kongsberg multibeam vendor format
0255_20110901_072623_EX1105_MB.all.mb58.gz 72.03MB Kongsberg multibeam vendor format
0256_20110901_082625_EX1105_MB.all.mb58.gz 73.70MB Kongsberg multibeam vendor format
0257_20110901_092632_EX1105_MB.all.mb58.gz 22.61MB Kongsberg multibeam vendor format
0258_20110901_094506_EX1105_MB.all.mb58.gz 4.90MB Kongsberg multibeam vendor format
0259_20110901_100252_EX1105_MB.all.mb58.gz 12.58MB Kongsberg multibeam vendor format
0260_20110901_104529_EX1105_MB.all.mb58.gz 67.06MB Kongsberg multibeam vendor format
0261_20110901_114531_EX1105_MB.all.mb58.gz 61.61MB Kongsberg multibeam vendor format
0262_20110901_124527_EX1105_MB.all.mb58.gz 63.62MB Kongsberg multibeam vendor format
0263_20110901_134528_EX1105_MB.all.mb58.gz 51.10MB Kongsberg multibeam vendor format
0264_20110901_143441_EX1105_MB.all.mb58.gz 69.69MB Kongsberg multibeam vendor format
0265_20110901_153440_EX1105_MB.all.mb58.gz 71.28MB Kongsberg multibeam vendor format
0266_20110901_163438_EX1105_MB.all.mb58.gz 30.89MB Kongsberg multibeam vendor format
0267_20110901_165955_EX1105_MB.all.mb58.gz 73.93MB Kongsberg multibeam vendor format
0268_20110901_175956_EX1105_MB.all.mb58.gz 63.25MB Kongsberg multibeam vendor format
0269_20110901_185955_EX1105_MB.all.mb58.gz 67.01MB Kongsberg multibeam vendor format
0270_20110901_195954_EX1105_MB.all.mb58.gz 390.8KB Kongsberg multibeam vendor format
0271_20110901_200016_EX1105_MB.all.mb58.gz 66.65MB Kongsberg multibeam vendor format
0272_20110901_210017_EX1105_MB.all.mb58.gz 64.17MB Kongsberg multibeam vendor format
0273_20110901_220016_EX1105_MB.all.mb58.gz 58.50MB Kongsberg multibeam vendor format
0274_20110901_230017_EX1105_MB.all.mb58.gz 55.14MB Kongsberg multibeam vendor format
0275_20110902_000017_EX1105_MB.all.mb58.gz 55.42MB Kongsberg multibeam vendor format
0276_20110902_010019_EX1105_MB.all.mb58.gz 45.73MB Kongsberg multibeam vendor format
0277_20110902_014535_EX1105_MB.all.mb58.gz 15.58MB Kongsberg multibeam vendor format
0278_20110902_020001_EX1105_MB.all.mb58.gz 72.57MB Kongsberg multibeam vendor format
0279_20110902_030001_EX1105_MB.all.mb58.gz 71.84MB Kongsberg multibeam vendor format
0280_20110902_040001_EX1105_MB.all.mb58.gz 66.97MB Kongsberg multibeam vendor format
0281_20110902_050003_EX1105_MB.all.mb58.gz 63.26MB Kongsberg multibeam vendor format
0282_20110902_060004_EX1105_MB.all.mb58.gz 68.17MB Kongsberg multibeam vendor format
0283_20110902_070002_EX1105_MB.all.mb58.gz 82.02MB Kongsberg multibeam vendor format
0284_20110902_080003_EX1105_MB.all.mb58.gz 82.30MB Kongsberg multibeam vendor format
0285_20110902_090002_EX1105_MB.all.mb58.gz 78.12MB Kongsberg multibeam vendor format
0286_20110902_100001_EX1105_MB.all.mb58.gz 73.27MB Kongsberg multibeam vendor format
0287_20110902_110003_EX1105_MB.all.mb58.gz 61.75MB Kongsberg multibeam vendor format
0288_20110902_120007_EX1105_MB.all.mb58.gz 58.03MB Kongsberg multibeam vendor format
0289_20110902_130002_EX1105_MB.all.mb58.gz 58.36MB Kongsberg multibeam vendor format
0290_20110902_140001_EX1105_MB.all.mb58.gz 59.51MB Kongsberg multibeam vendor format
0291_20110902_150001_EX1105_MB.all.mb58.gz 57.77MB Kongsberg multibeam vendor format
0292_20110902_160004_EX1105_MB.all.mb58.gz 61.18MB Kongsberg multibeam vendor format
0293_20110902_165959_EX1105_MB.all.mb58.gz 67.91MB Kongsberg multibeam vendor format
0294_20110902_180001_EX1105_MB.all.mb58.gz 64.65MB Kongsberg multibeam vendor format
0295_20110902_190002_EX1105_MB.all.mb58.gz 66.50MB Kongsberg multibeam vendor format
0296_20110902_200000_EX1105_MB.all.mb58.gz 63.17MB Kongsberg multibeam vendor format
0297_20110902_210000_EX1105_MB.all.mb58.gz 22.40MB Kongsberg multibeam vendor format
0298_20110902_212102_EX1105_MB.all.mb58.gz 4.35MB Kongsberg multibeam vendor format
0299_20110902_212453_EX1105_MB.all.mb58.gz 38.32MB Kongsberg multibeam vendor format
0300_20110902_220000_EX1105_MB.all.mb58.gz 18.22MB Kongsberg multibeam vendor format
0301_20110902_221606_EX1105_MB.all.mb58.gz 61.59MB Kongsberg multibeam vendor format
0302_20110902_231242_EX1105_MB.all.mb58.gz 5.21MB Kongsberg multibeam vendor format
0303_20110902_231728_EX1105_MB.all.mb58.gz 59.83MB Kongsberg multibeam vendor format
0304_20110903_001153_EX1105_MB.all.mb58.gz 51.08MB Kongsberg multibeam vendor format
0305_20110903_005901_EX1105_MB.all.mb58.gz 66.11MB Kongsberg multibeam vendor format
0306_20110903_015901_EX1105_MB.all.mb58.gz 54.63MB Kongsberg multibeam vendor format
0307_20110903_025313_EX1105_MB.all.mb58.gz 28.30MB Kongsberg multibeam vendor format
0308_20110903_031829_EX1105_MB.all.mb58.gz 7.46MB Kongsberg multibeam vendor format
0309_20110903_032505_EX1105_MB.all.mb58.gz 11.29MB Kongsberg multibeam vendor format
0310_20110903_034250_EX1105_MB.all.mb58.gz 50.65MB Kongsberg multibeam vendor format
0311_20110903_043432_EX1105_MB.all.mb58.gz 24.98MB Kongsberg multibeam vendor format
0312_20110903_050001_EX1105_MB.all.mb58.gz 58.64MB Kongsberg multibeam vendor format
0313_20110903_060003_EX1105_MB.all.mb58.gz 58.70MB Kongsberg multibeam vendor format
0314_20110903_070001_EX1105_MB.all.mb58.gz 58.57MB Kongsberg multibeam vendor format
0315_20110903_080003_EX1105_MB.all.mb58.gz 57.79MB Kongsberg multibeam vendor format
0316_20110903_090004_EX1105_MB.all.mb58.gz 58.21MB Kongsberg multibeam vendor format
0317_20110903_100006_EX1105_MB.all.mb58.gz 3.51MB Kongsberg multibeam vendor format
0318_20110903_100344_EX1105_MB.all.mb58.gz 12.17MB Kongsberg multibeam vendor format
0319_20110903_101823_EX1105_MB.all.mb58.gz 4.88MB Kongsberg multibeam vendor format
0320_20110903_102326_EX1105_MB.all.mb58.gz 33.18MB Kongsberg multibeam vendor format
0321_20110903_110409_EX1105_MB.all.mb58.gz 45.38MB Kongsberg multibeam vendor format
0322_20110903_120404_EX1105_MB.all.mb58.gz 45.72MB Kongsberg multibeam vendor format
0323_20110903_130409_EX1105_MB.all.mb58.gz 45.66MB Kongsberg multibeam vendor format
0324_20110903_140408_EX1105_MB.all.mb58.gz 45.62MB Kongsberg multibeam vendor format
0325_20110903_150403_EX1105_MB.all.mb58.gz 36.37MB Kongsberg multibeam vendor format
0326_20110903_155146_EX1105_MB.all.mb58.gz 11.37MB Kongsberg multibeam vendor format
0327_20110903_183951_EX1105_MB.all.mb58.gz 46.11MB Kongsberg multibeam vendor format
0328_20110903_193949_EX1105_MB.all.mb58.gz 46.22MB Kongsberg multibeam vendor format
0329_20110903_203950_EX1105_MB.all.mb58.gz 46.11MB Kongsberg multibeam vendor format
0330_20110903_213950_EX1105_MB.all.mb58.gz 19.76MB Kongsberg multibeam vendor format
0331_20110903_220535_EX1105_MB.all.mb58.gz 45.14MB Kongsberg multibeam vendor format
0332_20110903_230417_EX1105_MB.all.mb58.gz 16.93MB Kongsberg multibeam vendor format
0333_20110903_232616_EX1105_MB.all.mb58.gz 12.34MB Kongsberg multibeam vendor format
0334_20110903_234150_EX1105_MB.all.mb58.gz 17.38MB Kongsberg multibeam vendor format
0335_20110904_000358_EX1105_MB.all.mb58.gz 46.08MB Kongsberg multibeam vendor format
0336_20110904_010353_EX1105_MB.all.mb58.gz 46.62MB Kongsberg multibeam vendor format
0337_20110904_020351_EX1105_MB.all.mb58.gz 46.44MB Kongsberg multibeam vendor format
0338_20110904_030357_EX1105_MB.all.mb58.gz 48.92MB Kongsberg multibeam vendor format
0339_20110904_040354_EX1105_MB.all.mb58.gz 47.08MB Kongsberg multibeam vendor format
0340_20110904_050355_EX1105_MB.all.mb58.gz 19.41MB Kongsberg multibeam vendor format
0341_20110904_052924_EX1105_MB.all.mb58.gz 13.24MB Kongsberg multibeam vendor format
0342_20110904_054645_EX1105_MB.all.mb58.gz 10.24MB Kongsberg multibeam vendor format
0343_20110904_060008_EX1105_MB.all.mb58.gz 48.18MB Kongsberg multibeam vendor format
0344_20110904_070004_EX1105_MB.all.mb58.gz 58.09MB Kongsberg multibeam vendor format
0345_20110904_080004_EX1105_MB.all.mb58.gz 57.43MB Kongsberg multibeam vendor format
0346_20110904_090003_EX1105_MB.all.mb58.gz 54.42MB Kongsberg multibeam vendor format
0347_20110904_100001_EX1105_MB.all.mb58.gz 24.38MB Kongsberg multibeam vendor format
0348_20110904_102627_EX1105_MB.all.mb58.gz 15.51MB Kongsberg multibeam vendor format
0349_20110904_104230_EX1105_MB.all.mb58.gz 16.90MB Kongsberg multibeam vendor format
0350_20110904_110003_EX1105_MB.all.mb58.gz 57.12MB Kongsberg multibeam vendor format
0351_20110904_120004_EX1105_MB.all.mb58.gz 58.48MB Kongsberg multibeam vendor format
0352_20110904_130001_EX1105_MB.all.mb58.gz 59.64MB Kongsberg multibeam vendor format
0353_20110904_140001_EX1105_MB.all.mb58.gz 60.88MB Kongsberg multibeam vendor format
0354_20110904_150003_EX1105_MB.all.mb58.gz 58.77MB Kongsberg multibeam vendor format
0355_20110904_160007_EX1105_MB.all.mb58.gz 15.46MB Kongsberg multibeam vendor format
0356_20110904_161618_EX1105_MB.all.mb58.gz 58.81MB Kongsberg multibeam vendor format
0357_20110904_171612_EX1105_MB.all.mb58.gz 61.91MB Kongsberg multibeam vendor format
0358_20110904_181613_EX1105_MB.all.mb58.gz 59.79MB Kongsberg multibeam vendor format
0359_20110904_191613_EX1105_MB.all.mb58.gz 58.85MB Kongsberg multibeam vendor format
0360_20110904_201610_EX1105_MB.all.mb58.gz 49.45MB Kongsberg multibeam vendor format
0361_20110904_210708_EX1105_MB.all.mb58.gz 13.51MB Kongsberg multibeam vendor format
0362_20110904_212032_EX1105_MB.all.mb58.gz 47.74MB Kongsberg multibeam vendor format
0363_20110904_220843_EX1105_MB.all.mb58.gz 77.91MB Kongsberg multibeam vendor format
0364_20110904_230839_EX1105_MB.all.mb58.gz 79.10MB Kongsberg multibeam vendor format
0365_20110905_000840_EX1105_MB.all.mb58.gz 75.50MB Kongsberg multibeam vendor format
0366_20110905_010231_EX1105_MB.all.mb58.gz 85.72MB Kongsberg multibeam vendor format
0367_20110905_020230_EX1105_MB.all.mb58.gz 74.64MB Kongsberg multibeam vendor format
0368_20110905_025708_EX1105_MB.all.mb58.gz 14.76MB Kongsberg multibeam vendor format
0369_20110905_030810_EX1105_MB.all.mb58.gz 84.08MB Kongsberg multibeam vendor format
0370_20110905_040809_EX1105_MB.all.mb58.gz 75.17MB Kongsberg multibeam vendor format
0371_20110905_050004_EX1105_MB.all.mb58.gz 83.69MB Kongsberg multibeam vendor format
0372_20110905_060002_EX1105_MB.all.mb58.gz 82.05MB Kongsberg multibeam vendor format
0373_20110905_070004_EX1105_MB.all.mb58.gz 68.65MB Kongsberg multibeam vendor format
0374_20110905_075138_EX1105_MB.all.mb58.gz 18.56MB Kongsberg multibeam vendor format
0375_20110905_080455_EX1105_MB.all.mb58.gz 81.38MB Kongsberg multibeam vendor format
0376_20110905_090243_EX1105_MB.all.mb58.gz 82.19MB Kongsberg multibeam vendor format
0377_20110905_100021_EX1105_MB.all.mb58.gz 86.83MB Kongsberg multibeam vendor format
0378_20110905_110018_EX1105_MB.all.mb58.gz 89.77MB Kongsberg multibeam vendor format
0379_20110905_120021_EX1105_MB.all.mb58.gz 87.80MB Kongsberg multibeam vendor format
0380_20110905_130020_EX1105_MB.all.mb58.gz 20.20MB Kongsberg multibeam vendor format
0381_20110905_131443_EX1105_MB.all.mb58.gz 62.05MB Kongsberg multibeam vendor format
0382_20110905_140147_EX1105_MB.all.mb58.gz 53.35MB Kongsberg multibeam vendor format
0383_20110905_150147_EX1105_MB.all.mb58.gz 46.41MB Kongsberg multibeam vendor format
0384_20110905_160149_EX1105_MB.all.mb58.gz 46.55MB Kongsberg multibeam vendor format
0385_20110905_170148_EX1105_MB.all.mb58.gz 46.62MB Kongsberg multibeam vendor format
0386_20110905_180147_EX1105_MB.all.mb58.gz 46.74MB Kongsberg multibeam vendor format
0387_20110905_190147_EX1105_MB.all.mb58.gz 24.32MB Kongsberg multibeam vendor format
0388_20110905_193307_EX1105_MB.all.mb58.gz 46.50MB Kongsberg multibeam vendor format
0389_20110905_203306_EX1105_MB.all.mb58.gz 46.83MB Kongsberg multibeam vendor format
0390_20110905_213307_EX1105_MB.all.mb58.gz 31.68MB Kongsberg multibeam vendor format
0391_20110905_221341_EX1105_MB.all.mb58.gz 2.40MB Kongsberg multibeam vendor format
0392_20110905_221647_EX1105_MB.all.mb58.gz 46.95MB Kongsberg multibeam vendor format
0393_20110905_231648_EX1105_MB.all.mb58.gz 46.75MB Kongsberg multibeam vendor format
0394_20110906_001646_EX1105_MB.all.mb58.gz 46.89MB Kongsberg multibeam vendor format
0395_20110906_011647_EX1105_MB.all.mb58.gz 46.91MB Kongsberg multibeam vendor format
0396_20110906_021646_EX1105_MB.all.mb58.gz 47.02MB Kongsberg multibeam vendor format
0397_20110906_031648_EX1105_MB.all.mb58.gz 46.83MB Kongsberg multibeam vendor format
0398_20110906_041650_EX1105_MB.all.mb58.gz 46.87MB Kongsberg multibeam vendor format
0399_20110906_051651_EX1105_MB.all.mb58.gz 47.01MB Kongsberg multibeam vendor format
0401_20110906_061651_EX1105_MB.all.mb58.gz 47.04MB Kongsberg multibeam vendor format
0402_20110906_071652_EX1105_MB.all.mb58.gz 46.83MB Kongsberg multibeam vendor format
0403_20110906_081651_EX1105_MB.all.mb58.gz 47.31MB Kongsberg multibeam vendor format
0404_20110906_091648_EX1105_MB.all.mb58.gz 54.61MB Kongsberg multibeam vendor format
0405_20110906_101650_EX1105_MB.all.mb58.gz 41.33MB Kongsberg multibeam vendor format
0406_20110906_110213_EX1105_MB.all.mb58.gz 54.02MB Kongsberg multibeam vendor format
0407_20110906_120212_EX1105_MB.all.mb58.gz 52.93MB Kongsberg multibeam vendor format
0408_20110906_130214_EX1105_MB.all.mb58.gz 46.97MB Kongsberg multibeam vendor format
0409_20110906_140213_EX1105_MB.all.mb58.gz 46.79MB Kongsberg multibeam vendor format
0410_20110906_150209_EX1105_MB.all.mb58.gz 46.79MB Kongsberg multibeam vendor format
0411_20110906_160212_EX1105_MB.all.mb58.gz 47.11MB Kongsberg multibeam vendor format
0412_20110906_170212_EX1105_MB.all.mb58.gz 47.12MB Kongsberg multibeam vendor format
0413_20110906_180210_EX1105_MB.all.mb58.gz 29.78MB Kongsberg multibeam vendor format
0414_20110906_184006_EX1105_MB.all.mb58.gz 47.19MB Kongsberg multibeam vendor format
0415_20110906_194006_EX1105_MB.all.mb58.gz 47.40MB Kongsberg multibeam vendor format
0416_20110906_204005_EX1105_MB.all.mb58.gz 47.48MB Kongsberg multibeam vendor format
0417_20110906_214006_EX1105_MB.all.mb58.gz 15.86MB Kongsberg multibeam vendor format
0418_20110906_220013_EX1105_MB.all.mb58.gz 43.68MB Kongsberg multibeam vendor format
0419_20110906_223858_EX1105_MB.all.mb58.gz 5.90MB Kongsberg multibeam vendor format
0420_20110906_224406_EX1105_MB.all.mb58.gz 60.70MB Kongsberg multibeam vendor format
0421_20110906_233751_EX1105_MB.all.mb58.gz 3.01MB Kongsberg multibeam vendor format
0422_20110906_234033_EX1105_MB.all.mb58.gz 15.33MB Kongsberg multibeam vendor format
0423_20110906_235423_EX1105_MB.all.mb58.gz 67.15MB Kongsberg multibeam vendor format
0424_20110907_005423_EX1105_MB.all.mb58.gz 13.32MB Kongsberg multibeam vendor format
0425_20110907_010608_EX1105_MB.all.mb58.gz 68.19MB Kongsberg multibeam vendor format
0426_20110907_020604_EX1105_MB.all.mb58.gz 33.89MB Kongsberg multibeam vendor format
0427_20110907_023438_EX1105_MB.all.mb58.gz 19.86MB Kongsberg multibeam vendor format
0428_20110907_025117_EX1105_MB.all.mb58.gz 70.02MB Kongsberg multibeam vendor format
0429_20110907_035117_EX1105_MB.all.mb58.gz 68.09MB Kongsberg multibeam vendor format
0430_20110907_045120_EX1105_MB.all.mb58.gz 45.73MB Kongsberg multibeam vendor format
0431_20110907_053214_EX1105_MB.all.mb58.gz 66.30MB Kongsberg multibeam vendor format
0432_20110907_063210_EX1105_MB.all.mb58.gz 6.46MB Kongsberg multibeam vendor format
0433_20110907_063757_EX1105_MB.all.mb58.gz 22.69MB Kongsberg multibeam vendor format
0434_20110907_065807_EX1105_MB.all.mb58.gz 68.44MB Kongsberg multibeam vendor format
0435_20110907_075807_EX1105_MB.all.mb58.gz 43.76MB Kongsberg multibeam vendor format
0436_20110907_083700_EX1105_MB.all.mb58.gz 15.87MB Kongsberg multibeam vendor format
0437_20110907_085057_EX1105_MB.all.mb58.gz 68.06MB Kongsberg multibeam vendor format
0438_20110907_095052_EX1105_MB.all.mb58.gz 67.50MB Kongsberg multibeam vendor format
0439_20110907_104855_EX1105_MB.all.mb58.gz 6.93MB Kongsberg multibeam vendor format
0440_20110907_105503_EX1105_MB.all.mb58.gz 33.19MB Kongsberg multibeam vendor format
0441_20110907_112346_EX1105_MB.all.mb58.gz 69.39MB Kongsberg multibeam vendor format
0442_20110907_122348_EX1105_MB.all.mb58.gz 12.41MB Kongsberg multibeam vendor format
0443_20110907_123430_EX1105_MB.all.mb58.gz 16.81MB Kongsberg multibeam vendor format
0444_20110907_124917_EX1105_MB.all.mb58.gz 10.11MB Kongsberg multibeam vendor format
0445_20110907_125810_EX1105_MB.all.mb58.gz 9.58MB Kongsberg multibeam vendor format
0446_20110907_130633_EX1105_MB.all.mb58.gz 39.14MB Kongsberg multibeam vendor format
0447_20110907_134046_EX1105_MB.all.mb58.gz 67.87MB Kongsberg multibeam vendor format
0448_20110907_144050_EX1105_MB.all.mb58.gz 68.00MB Kongsberg multibeam vendor format
0449_20110907_154046_EX1105_MB.all.mb58.gz 9.10MB Kongsberg multibeam vendor format
0450_20110907_154846_EX1105_MB.all.mb58.gz 12.12MB Kongsberg multibeam vendor format
0451_20110907_155404_EX1105_MB.all.mb58.gz 68.57MB Kongsberg multibeam vendor format
0452_20110907_165402_EX1105_MB.all.mb58.gz 69.26MB Kongsberg multibeam vendor format
0453_20110907_175406_EX1105_MB.all.mb58.gz 16.80MB Kongsberg multibeam vendor format
0454_20110907_180858_EX1105_MB.all.mb58.gz 3.07MB Kongsberg multibeam vendor format
0456_20110907_183118_EX1105_MB.all.mb58.gz 69.83MB Kongsberg multibeam vendor format
0457_20110907_193117_EX1105_MB.all.mb58.gz 69.39MB Kongsberg multibeam vendor format
0458_20110907_203117_EX1105_MB.all.mb58.gz 40.42MB Kongsberg multibeam vendor format
0459_20110907_210616_EX1105_MB.all.mb58.gz 15.37MB Kongsberg multibeam vendor format
0460_20110907_211933_EX1105_MB.all.mb58.gz 68.63MB Kongsberg multibeam vendor format
0461_20110907_221931_EX1105_MB.all.mb58.gz 49.38MB Kongsberg multibeam vendor format
0462_20110907_230124_EX1105_MB.all.mb58.gz 69.70MB Kongsberg multibeam vendor format
0463_20110908_000119_EX1105_MB.all.mb58.gz 23.38MB Kongsberg multibeam vendor format
0464_20110908_002054_EX1105_MB.all.mb58.gz 35.06MB Kongsberg multibeam vendor format
0465_20110908_005007_EX1105_MB.all.mb58.gz 45.46MB Kongsberg multibeam vendor format
0466_20110908_012855_EX1105_MB.all.mb58.gz 3.68MB Kongsberg multibeam vendor format
0467_20110908_013205_EX1105_MB.all.mb58.gz 8.04MB Kongsberg multibeam vendor format
0468_20110908_013855_EX1105_MB.all.mb58.gz 2.90MB Kongsberg multibeam vendor format
0469_20110908_014124_EX1105_MB.all.mb58.gz 115.0KB Kongsberg multibeam vendor format
0470_20110908_014130_EX1105_MB.all.mb58.gz 27.73MB Kongsberg multibeam vendor format
0471_20110908_020453_EX1105_MB.all.mb58.gz 5.95MB Kongsberg multibeam vendor format
0472_20110908_020947_EX1105_MB.all.mb58.gz 12.34MB Kongsberg multibeam vendor format
0473_20110908_022003_EX1105_MB.all.mb58.gz 70.90MB Kongsberg multibeam vendor format
0474_20110908_032001_EX1105_MB.all.mb58.gz 48.08MB Kongsberg multibeam vendor format
0475_20110908_040259_EX1105_MB.all.mb58.gz 69.88MB Kongsberg multibeam vendor format
0476_20110908_050300_EX1105_MB.all.mb58.gz 60.75MB Kongsberg multibeam vendor format
0477_20110908_055447_EX1105_MB.all.mb58.gz 34.38MB Kongsberg multibeam vendor format
0478_20110908_062347_EX1105_MB.all.mb58.gz 43.39MB Kongsberg multibeam vendor format
0479_20110908_070036_EX1105_MB.all.mb58.gz 69.85MB Kongsberg multibeam vendor format
0480_20110908_080036_EX1105_MB.all.mb58.gz 69.55MB Kongsberg multibeam vendor format
0481_20110908_090039_EX1105_MB.all.mb58.gz 34.07MB Kongsberg multibeam vendor format
0482_20110908_092923_EX1105_MB.all.mb58.gz 17.19MB Kongsberg multibeam vendor format
0483_20110908_094345_EX1105_MB.all.mb58.gz 22.40MB Kongsberg multibeam vendor format
0484_20110908_100235_EX1105_MB.all.mb58.gz 67.87MB Kongsberg multibeam vendor format
0485_20110908_110001_EX1105_MB.all.mb58.gz 71.56MB Kongsberg multibeam vendor format
0486_20110908_120002_EX1105_MB.all.mb58.gz 73.58MB Kongsberg multibeam vendor format
0487_20110908_130001_EX1105_MB.all.mb58.gz 33.63MB Kongsberg multibeam vendor format
0488_20110908_132741_EX1105_MB.all.mb58.gz 24.71MB Kongsberg multibeam vendor format
0489_20110908_134712_EX1105_MB.all.mb58.gz 73.87MB Kongsberg multibeam vendor format
0490_20110908_144710_EX1105_MB.all.mb58.gz 79.01MB Kongsberg multibeam vendor format
0491_20110908_154712_EX1105_MB.all.mb58.gz 23.84MB Kongsberg multibeam vendor format
0492_20110908_160633_EX1105_MB.all.mb58.gz 20.30MB Kongsberg multibeam vendor format
0493_20110908_162233_EX1105_MB.all.mb58.gz 38.52MB Kongsberg multibeam vendor format
0494_20110908_165133_EX1105_MB.all.mb58.gz 47.69MB Kongsberg multibeam vendor format
0495_20110908_172727_EX1105_MB.all.mb58.gz 60.92MB Kongsberg multibeam vendor format
0496_20110908_181250_EX1105_MB.all.mb58.gz 13.24MB Kongsberg multibeam vendor format
0497_20110908_182247_EX1105_MB.all.mb58.gz 80.17MB Kongsberg multibeam vendor format
0498_20110908_192245_EX1105_MB.all.mb58.gz 13.46MB Kongsberg multibeam vendor format
0499_20110908_193259_EX1105_MB.all.mb58.gz 35.28MB Kongsberg multibeam vendor format
0500_20110908_200111_EX1105_MB.all.mb58.gz 13.99MB Kongsberg multibeam vendor format
0501_20110908_201233_EX1105_MB.all.mb58.gz 64.71MB Kongsberg multibeam vendor format
0502_20110908_210155_EX1105_MB.all.mb58.gz 54.75MB Kongsberg multibeam vendor format
0503_20110908_214221_EX1105_MB.all.mb58.gz 20.17MB Kongsberg multibeam vendor format
0504_20110908_215707_EX1105_MB.all.mb58.gz 80.39MB Kongsberg multibeam vendor format
0505_20110908_225709_EX1105_MB.all.mb58.gz 65.81MB Kongsberg multibeam vendor format
0506_20110908_234822_EX1105_MB.all.mb58.gz 19.16MB Kongsberg multibeam vendor format
0507_20110909_000317_EX1105_MB.all.mb58.gz 6.68MB Kongsberg multibeam vendor format
0508_20110909_000822_EX1105_MB.all.mb58.gz 78.58MB Kongsberg multibeam vendor format
0509_20110909_010819_EX1105_MB.all.mb58.gz 81.88MB Kongsberg multibeam vendor format
0510_20110909_020819_EX1105_MB.all.mb58.gz 3.44MB Kongsberg multibeam vendor format
0511_20110909_021049_EX1105_MB.all.mb58.gz 16.42MB Kongsberg multibeam vendor format
0512_20110909_022300_EX1105_MB.all.mb58.gz 82.55MB Kongsberg multibeam vendor format
0513_20110909_032301_EX1105_MB.all.mb58.gz 49.58MB Kongsberg multibeam vendor format
0514_20110909_040004_EX1105_MB.all.mb58.gz 43.51MB Kongsberg multibeam vendor format
0515_20110909_043229_EX1105_MB.all.mb58.gz 12.14MB Kongsberg multibeam vendor format
0516_20110909_044141_EX1105_MB.all.mb58.gz 24.29MB Kongsberg multibeam vendor format
0517_20110909_050001_EX1105_MB.all.mb58.gz 80.98MB Kongsberg multibeam vendor format
0518_20110909_060002_EX1105_MB.all.mb58.gz 82.71MB Kongsberg multibeam vendor format
0519_20110909_070002_EX1105_MB.all.mb58.gz 16.82MB Kongsberg multibeam vendor format
0520_20110909_071130_EX1105_MB.all.mb58.gz 14.13MB Kongsberg multibeam vendor format
0521_20110909_072100_EX1105_MB.all.mb58.gz 55.92MB Kongsberg multibeam vendor format
0522_20110909_080004_EX1105_MB.all.mb58.gz 83.48MB Kongsberg multibeam vendor format
0523_20110909_090001_EX1105_MB.all.mb58.gz 70.12MB Kongsberg multibeam vendor format
0524_20110909_095237_EX1105_MB.all.mb58.gz 14.00MB Kongsberg multibeam vendor format
0525_20110909_100248_EX1105_MB.all.mb58.gz 81.43MB Kongsberg multibeam vendor format
0526_20110909_110249_EX1105_MB.all.mb58.gz 84.02MB Kongsberg multibeam vendor format
0527_20110909_120246_EX1105_MB.all.mb58.gz 76.38MB Kongsberg multibeam vendor format
0528_20110909_125520_EX1105_MB.all.mb58.gz 38.68MB Kongsberg multibeam vendor format
0529_20110909_132158_EX1105_MB.all.mb58.gz 5.54MB Kongsberg multibeam vendor format
0530_20110909_132544_EX1105_MB.all.mb58.gz 32.16MB Kongsberg multibeam vendor format
0531_20110909_134853_EX1105_MB.all.mb58.gz 31.56MB Kongsberg multibeam vendor format
0532_20110909_141313_EX1105_MB.all.mb58.gz 16.32MB Kongsberg multibeam vendor format
0533_20110909_142534_EX1105_MB.all.mb58.gz 39.40MB Kongsberg multibeam vendor format
0534_20110909_145646_EX1105_MB.all.mb58.gz 1.89MB Kongsberg multibeam vendor format
0535_20110909_145818_EX1105_MB.all.mb58.gz 32.11MB Kongsberg multibeam vendor format
0536_20110909_152512_EX1105_MB.all.mb58.gz 7.84MB Kongsberg multibeam vendor format
0537_20110909_153142_EX1105_MB.all.mb58.gz 73.59MB Kongsberg multibeam vendor format
0538_20110909_163142_EX1105_MB.all.mb58.gz 81.41MB Kongsberg multibeam vendor format
0539_20110909_173141_EX1105_MB.all.mb58.gz 19.05MB Kongsberg multibeam vendor format
0540_20110909_174425_EX1105_MB.all.mb58.gz 26.50MB Kongsberg multibeam vendor format
0541_20110909_180202_EX1105_MB.all.mb58.gz 96.61MB Kongsberg multibeam vendor format
0542_20110909_190203_EX1105_MB.all.mb58.gz 6.26MB Kongsberg multibeam vendor format
0543_20110909_190522_EX1105_MB.all.mb58.gz 43.41MB Kongsberg multibeam vendor format
0544_20110909_192917_EX1105_MB.all.mb58.gz 14.48MB Kongsberg multibeam vendor format
0545_20110909_193700_EX1105_MB.all.mb58.gz 44.93MB Kongsberg multibeam vendor format
0546_20110909_200053_EX1105_MB.all.mb58.gz 14.79MB Kongsberg multibeam vendor format
0547_20110909_200829_EX1105_MB.all.mb58.gz 40.41MB Kongsberg multibeam vendor format
0548_20110909_202858_EX1105_MB.all.mb58.gz 15.38MB Kongsberg multibeam vendor format
0549_20110909_203650_EX1105_MB.all.mb58.gz 47.55MB Kongsberg multibeam vendor format
0550_20110909_210017_EX1105_MB.all.mb58.gz 15.90MB Kongsberg multibeam vendor format
0551_20110909_210806_EX1105_MB.all.mb58.gz 43.29MB Kongsberg multibeam vendor format
0552_20110909_212851_EX1105_MB.all.mb58.gz 59.85MB Kongsberg multibeam vendor format
0553_20110909_215711_EX1105_MB.all.mb58.gz 16.32MB Kongsberg multibeam vendor format
0554_20110909_220459_EX1105_MB.all.mb58.gz 45.80MB Kongsberg multibeam vendor format
0555_20110909_222621_EX1105_MB.all.mb58.gz 18.95MB Kongsberg multibeam vendor format
0556_20110909_223508_EX1105_MB.all.mb58.gz 43.81MB Kongsberg multibeam vendor format
0557_20110909_225530_EX1105_MB.all.mb58.gz 151.01MB Kongsberg multibeam vendor format
0558_20110909_235529_EX1105_MB.all.mb58.gz 21.96MB Kongsberg multibeam vendor format
0559_20110910_000159_EX1105_MB.all.mb58.gz 39.16MB Kongsberg multibeam vendor format
0560_20110910_001207_EX1105_MB.all.mb58.gz 10.77MB Kongsberg multibeam vendor format
0561_20110910_001509_EX1105_MB.all.mb58.gz 43.44MB Kongsberg multibeam vendor format
0562_20110910_002622_EX1105_MB.all.mb58.gz 216.03MB Kongsberg multibeam vendor format
0563_20110910_012622_EX1105_MB.all.mb58.gz 159.50MB Kongsberg multibeam vendor format
0564_20110910_022622_EX1105_MB.all.mb58.gz 148.03MB Kongsberg multibeam vendor format
0565_20110910_032623_EX1105_MB.all.mb58.gz 85.37MB Kongsberg multibeam vendor format
0566_20110910_040652_EX1105_MB.all.mb58.gz 72.56MB Kongsberg multibeam vendor format
0567_20110910_043635_EX1105_MB.all.mb58.gz 23.78MB Kongsberg multibeam vendor format
0568_20110910_044346_EX1105_MB.all.mb58.gz 247.95MB Kongsberg multibeam vendor format
0569_20110910_054346_EX1105_MB.all.mb58.gz 336.45MB Kongsberg multibeam vendor format
0570_20110910_064346_EX1105_MB.all.mb58.gz 393.21MB Kongsberg multibeam vendor format
0571_20110910_074346_EX1105_MB.all.mb58.gz 318.73MB Kongsberg multibeam vendor format
0572_20110910_084346_EX1105_MB.all.mb58.gz 263.77MB Kongsberg multibeam vendor format
0573_20110910_094346_EX1105_MB.all.mb58.gz 353.53MB Kongsberg multibeam vendor format

Full Resolution Bathymetry (processed): 588

Files File Size Description
HDCS_Data_EXApril09_2011-235_0000_20110823_003743_EX1105_MB.txt.mb162 8.31MB Generic XYZ sounding format
HDCS_Data_EXApril09_2011-235_0000_20110823_062314_EX1105_MB.txt.mb162 1.88MB Generic XYZ sounding format
HDCS_Data_EXApril09_2011-235_0000_20110823_175500_EX1105_MB.txt.mb162 5.20MB Generic XYZ sounding format
HDCS_Data_EXApril09_2011-235_0001_20110823_011516_EX1105_MB.txt.mb162 13.63MB Generic XYZ sounding format
HDCS_Data_EXApril09_2011-235_0001_20110823_064004_EX1105_MB.txt.mb162 14.97MB Generic XYZ sounding format
HDCS_Data_EXApril09_2011-235_0001_20110823_182821_EX1105_MB.txt.mb162 9.43MB Generic XYZ sounding format
HDCS_Data_EXApril09_2011-235_0002_20110823_093647_EX1105_MB.txt.mb162 13.29MB Generic XYZ sounding format
HDCS_Data_EXApril09_2011-235_0002_20110823_185807_EX1105_MB.txt.mb162 48.89MB Generic XYZ sounding format
HDCS_Data_EXApril09_2011-235_0003_20110823_153422_EX1105_MB.txt.mb162 32.24MB Generic XYZ sounding format
HDCS_Data_EXApril09_2011-236_0000_20110824_205708_EX1105_MB.txt.mb162 11.15MB Generic XYZ sounding format
HDCS_Data_EXApril09_2011-236_0002_20110824_225936_EX1105_MB.txt.mb162 4.45MB Generic XYZ sounding format
HDCS_Data_EXApril09_2011-236_0003_20110824_005807_EX1105_MB.txt.mb162 4.14MB Generic XYZ sounding format
HDCS_Data_EXApril09_2011-236_0004_20110824_015105_EX1105_MB.txt.mb162 35.63MB Generic XYZ sounding format
HDCS_Data_EXApril09_2011-236_0005_20110824_075106_EX1105_MB.txt.mb162 48.42MB Generic XYZ sounding format
HDCS_Data_EXApril09_2011-236_0006_20110824_154752_EX1105_MB.txt.mb162 13.46MB Generic XYZ sounding format
HDCS_Data_EXApril09_2011-236_0007_20110824_164128_EX1105_MB.txt.mb162 57.17MB Generic XYZ sounding format
HDCS_Data_EXApril09_2011-237_0000_20110825_213114_EX1105_MB.txt.mb162 3.95MB Generic XYZ sounding format
HDCS_Data_EXApril09_2011-237_0003_20110824_235421_EX1105_MB.txt.mb162 21.70MB Generic XYZ sounding format
HDCS_Data_EXApril09_2011-237_0004_20110825_055420_EX1105_MB.txt.mb162 25.81MB Generic XYZ sounding format
HDCS_Data_EXApril09_2011-237_0005_20110825_115419_EX1105_MB.txt.mb162 5.71MB Generic XYZ sounding format
HDCS_Data_EXApril09_2011-237_0006_20110825_135501_EX1105_MB.txt.mb162 6.81MB Generic XYZ sounding format
HDCS_Data_EXApril09_2011-237_0007_20110825_172156_EX1105_MB.txt.mb162 9.36MB Generic XYZ sounding format
HDCS_Data_Okeanos_March_2011_2011-237_0000_20110825_235407_EX1105_MB.txt.mb162 3.31MB Generic XYZ sounding format
HDCS_Data_Okeanos_March_2011_2011-238_0001_20110826_003851_EX1105_MB.txt.mb162 1.25MB Generic XYZ sounding format
HDCS_Data_Okeanos_March_2011_2011-238_0002_20110826_010051_EX1105_MB.txt.mb162 3.14MB Generic XYZ sounding format
HDCS_Data_Okeanos_March_2011_2011-238_0003_20110826_013131_EX1105_MB.txt.mb162 3.12MB Generic XYZ sounding format
HDCS_Data_Okeanos_March_2011_2011-238_0004_20110826_020053_EX1105_MB.txt.mb162 6.75MB Generic XYZ sounding format
HDCS_Data_Okeanos_March_2011_2011-238_0005_20110826_030052_EX1105_MB.txt.mb162 6.45MB Generic XYZ sounding format
HDCS_Data_Okeanos_March_2011_2011-238_0006_20110826_040053_EX1105_MB.txt.mb162 2.76MB Generic XYZ sounding format
HDCS_Data_Okeanos_March_2011_2011-238_0007_20110826_043844_EX1105_MB.txt.mb162 1.67MB Generic XYZ sounding format
HDCS_Data_Okeanos_March_2011_2011-238_0008_20110826_050038_EX1105_MB.txt.mb162 5.21MB Generic XYZ sounding format
HDCS_Data_Okeanos_March_2011_2011-238_0009_20110826_060041_EX1105_MB.txt.mb162 5.76MB Generic XYZ sounding format
HDCS_Data_Okeanos_March_2011_2011-238_0010_20110826_070041_EX1105_MB.txt.mb162 4.96MB Generic XYZ sounding format
HDCS_Data_Okeanos_March_2011_2011-238_0011_20110826_080039_EX1105_MB.txt.mb162 3.99MB Generic XYZ sounding format
HDCS_Data_Okeanos_March_2011_2011-238_0012_20110826_090040_EX1105_MB.txt.mb162 4.03MB Generic XYZ sounding format
HDCS_Data_Okeanos_March_2011_2011-238_0013_20110826_100041_EX1105_MB.txt.mb162 4.16MB Generic XYZ sounding format
HDCS_Data_Okeanos_March_2011_2011-238_0014_20110826_110044_EX1105_MB.txt.mb162 4.59MB Generic XYZ sounding format
HDCS_Data_Okeanos_March_2011_2011-238_0015_20110826_120041_EX1105_MB.txt.mb162 4.51MB Generic XYZ sounding format
HDCS_Data_Okeanos_March_2011_2011-238_0016_20110826_125439_EX1105_MB.txt.mb162 1.41MB Generic XYZ sounding format
HDCS_Data_Okeanos_March_2011_2011-238_0017_20110826_131534_EX1105_MB.txt.mb162 4.10MB Generic XYZ sounding format
HDCS_Data_Okeanos_March_2011_2011-238_0018_20110826_140222_EX1105_MB.txt.mb162 3.84MB Generic XYZ sounding format
HDCS_Data_Okeanos_March_2011_2011-238_0019_20110826_144810_EX1105_MB.txt.mb162 0.57MB Generic XYZ sounding format
HDCS_Data_Okeanos_March_2011_2011-238_0020_20110826_145604_EX1105_MB.txt.mb162 3.87MB Generic XYZ sounding format
HDCS_Data_Okeanos_March_2011_2011-238_0021_20110826_155126_EX1105_MB.txt.mb162 0.72MB Generic XYZ sounding format
HDCS_Data_Okeanos_March_2011_2011-238_0022_20110826_160206_EX1105_MB.txt.mb162 3.86MB Generic XYZ sounding format
HDCS_Data_Okeanos_March_2011_2011-238_0023_20110826_170207_EX1105_MB.txt.mb162 116.6KB Generic XYZ sounding format
HDCS_Data_Okeanos_March_2011_2011-238_0024_20110826_170323_EX1105_MB.txt.mb162 5.58MB Generic XYZ sounding format
HDCS_Data_Okeanos_March_2011_2011-238_0025_20110826_180326_EX1105_MB.txt.mb162 1.63MB Generic XYZ sounding format
HDCS_Data_Okeanos_March_2011_2011-238_0026_20110826_181934_EX1105_MB.txt.mb162 1.04MB Generic XYZ sounding format
HDCS_Data_Okeanos_March_2011_2011-238_0027_20110826_182904_EX1105_MB.txt.mb162 3.63MB Generic XYZ sounding format
HDCS_Data_Okeanos_March_2011_2011-238_0028_20110826_190544_EX1105_MB.txt.mb162 4.14MB Generic XYZ sounding format
HDCS_Data_Okeanos_March_2011_2011-238_0029_20110826_195532_EX1105_MB.txt.mb162 398.8KB Generic XYZ sounding format
HDCS_Data_Okeanos_March_2011_2011-238_0030_20110826_200657_EX1105_MB.txt.mb162 2.26MB Generic XYZ sounding format
HDCS_Data_Okeanos_March_2011_2011-238_0031_20110826_210052_EX1105_MB.txt.mb162 0.98MB Generic XYZ sounding format
HDCS_Data_Okeanos_March_2011_2011-238_0032_20110826_212229_EX1105_MB.txt.mb162 415.7KB Generic XYZ sounding format
HDCS_Data_Okeanos_March_2011_2011-238_0033_20110826_213054_EX1105_MB.txt.mb162 1.57MB Generic XYZ sounding format
HDCS_Data_Okeanos_March_2011_2011-238_0034_20110826_220618_EX1105_MB.txt.mb162 0.84MB Generic XYZ sounding format
HDCS_Data_Okeanos_March_2011_2011-238_0035_20110826_222649_EX1105_MB.txt.mb162 0.99MB Generic XYZ sounding format
HDCS_Data_Okeanos_March_2011_2011-238_0036_20110826_223755_EX1105_MB.txt.mb162 2.75MB Generic XYZ sounding format
HDCS_Data_Okeanos_March_2011_2011-238_0037_20110826_230259_EX1105_MB.txt.mb162 1.94MB Generic XYZ sounding format
HDCS_Data_Okeanos_March_2011_2011-238_0038_20110826_232043_EX1105_MB.txt.mb162 493.7KB Generic XYZ sounding format
HDCS_Data_Okeanos_March_2011_2011-238_0039_20110826_232504_EX1105_MB.txt.mb162 2.28MB Generic XYZ sounding format
HDCS_Data_Okeanos_March_2011_2011-238_0040_20110826_234556_EX1105_MB.txt.mb162 1.30MB Generic XYZ sounding format
HDCS_Data_Okeanos_March_2011_2011-238_0041_20110826_235801_EX1105_MB.txt.mb162 4.79MB Generic XYZ sounding format
HDCS_Data_Okeanos_March_2011_2011-239_0042_20110827_005209_EX1105_MB.txt.mb162 0.98MB Generic XYZ sounding format
HDCS_Data_Okeanos_March_2011_2011-239_0043_20110827_010535_EX1105_MB.txt.mb162 5.64MB Generic XYZ sounding format
HDCS_Data_Okeanos_March_2011_2011-239_0044_20110827_020536_EX1105_MB.txt.mb162 2.68MB Generic XYZ sounding format
HDCS_Data_Okeanos_March_2011_2011-239_0046_20110827_022947_EX1105_MB.txt.mb162 0.98MB Generic XYZ sounding format
HDCS_Data_Okeanos_March_2011_2011-239_0047_20110827_023837_EX1105_MB.txt.mb162 0.98MB Generic XYZ sounding format
HDCS_Data_Okeanos_March_2011_2011-239_0048_20110827_024731_EX1105_MB.txt.mb162 3.46MB Generic XYZ sounding format
HDCS_Data_Okeanos_March_2011_2011-239_0049_20110827_032505_EX1105_MB.txt.mb162 0.59MB Generic XYZ sounding format
HDCS_Data_Okeanos_March_2011_2011-239_0050_20110827_033327_EX1105_MB.txt.mb162 1.89MB Generic XYZ sounding format
HDCS_Data_Okeanos_March_2011_2011-239_0051_20110827_040742_EX1105_MB.txt.mb162 0.72MB Generic XYZ sounding format
HDCS_Data_Okeanos_March_2011_2011-239_0052_20110827_042254_EX1105_MB.txt.mb162 334.4KB Generic XYZ sounding format
HDCS_Data_Okeanos_March_2011_2011-239_0053_20110827_042859_EX1105_MB.txt.mb162 1.75MB Generic XYZ sounding format
HDCS_Data_Okeanos_March_2011_2011-239_0054_20110827_050134_EX1105_MB.txt.mb162 0.73MB Generic XYZ sounding format
HDCS_Data_Okeanos_March_2011_2011-239_0055_20110827_051454_EX1105_MB.txt.mb162 338.7KB Generic XYZ sounding format
HDCS_Data_Okeanos_March_2011_2011-239_0056_20110827_052105_EX1105_MB.txt.mb162 2.62MB Generic XYZ sounding format
HDCS_Data_Okeanos_March_2011_2011-239_0057_20110827_060851_EX1105_MB.txt.mb162 0.94MB Generic XYZ sounding format
HDCS_Data_Okeanos_March_2011_2011-239_0058_20110827_061722_EX1105_MB.txt.mb162 4.87MB Generic XYZ sounding format
HDCS_Data_Okeanos_March_2011_2011-239_0059_20110827_071134_EX1105_MB.txt.mb162 5.01MB Generic XYZ sounding format
HDCS_Data_Okeanos_March_2011_2011-239_0060_20110827_075356_EX1105_MB.txt.mb162 0.99MB Generic XYZ sounding format
HDCS_Data_Okeanos_March_2011_2011-239_0061_20110827_080201_EX1105_MB.txt.mb162 4.13MB Generic XYZ sounding format
HDCS_Data_Okeanos_March_2011_2011-239_0062_20110827_083907_EX1105_MB.txt.mb162 0.56MB Generic XYZ sounding format
HDCS_Data_Okeanos_March_2011_2011-239_0063_20110827_084829_EX1105_MB.txt.mb162 2.92MB Generic XYZ sounding format
HDCS_Data_Okeanos_March_2011_2011-239_0064_20110827_093802_EX1105_MB.txt.mb162 0.59MB Generic XYZ sounding format
HDCS_Data_Okeanos_March_2011_2011-239_0065_20110827_094722_EX1105_MB.txt.mb162 2.40MB Generic XYZ sounding format
HDCS_Data_Okeanos_March_2011_2011-239_0066_20110827_103855_EX1105_MB.txt.mb162 2.41MB Generic XYZ sounding format
HDCS_Data_Okeanos_March_2011_2011-239_0067_20110827_110023_EX1105_MB.txt.mb162 3.46MB Generic XYZ sounding format
HDCS_Data_Okeanos_March_2011_2011-239_0068_20110827_113025_EX1105_MB.txt.mb162 1.00MB Generic XYZ sounding format
HDCS_Data_Okeanos_March_2011_2011-239_0069_20110827_113858_EX1105_MB.txt.mb162 2.43MB Generic XYZ sounding format
HDCS_Data_Okeanos_March_2011_2011-239_0070_20110827_120005_EX1105_MB.txt.mb162 2.68MB Generic XYZ sounding format
HDCS_Data_Okeanos_March_2011_2011-239_0071_20110827_122356_EX1105_MB.txt.mb162 427.3KB Generic XYZ sounding format
HDCS_Data_Okeanos_March_2011_2011-239_0072_20110827_122915_EX1105_MB.txt.mb162 2.53MB Generic XYZ sounding format
HDCS_Data_Okeanos_March_2011_2011-239_0073_20110827_130014_EX1105_MB.txt.mb162 2.69MB Generic XYZ sounding format
HDCS_Data_Okeanos_March_2011_2011-239_0074_20110827_133205_EX1105_MB.txt.mb162 2.43MB Generic XYZ sounding format
HDCS_Data_Okeanos_March_2011_2011-239_0075_20110827_140141_EX1105_MB.txt.mb162 5.90MB Generic XYZ sounding format
HDCS_Data_Okeanos_March_2011_2011-239_0076_20110827_150120_EX1105_MB.txt.mb162 6.67MB Generic XYZ sounding format
HDCS_Data_Okeanos_March_2011_2011-239_0077_20110827_160120_EX1105_MB.txt.mb162 253.5KB Generic XYZ sounding format
HDCS_Data_Okeanos_March_2011_2011-239_0078_20110827_202800_EX1105_MB.txt.mb162 2.33MB Generic XYZ sounding format
HDCS_Data_Okeanos_March_2011_2011-239_0079_20110827_211022_EX1105_MB.txt.mb162 66.2KB Generic XYZ sounding format
HDCS_Data_Okeanos_March_2011_2011-239_0080_20110827_212020_EX1105_MB.txt.mb162 2.96MB Generic XYZ sounding format
HDCS_Data_Okeanos_March_2011_2011-239_0081_20110827_221938_EX1105_MB.txt.mb162 111.0KB Generic XYZ sounding format
HDCS_Data_Okeanos_March_2011_2011-239_0082_20110827_222149_EX1105_MB.txt.mb162 4.74MB Generic XYZ sounding format
HDCS_Data_Okeanos_March_2011_2011-239_0083_20110827_230434_EX1105_MB.txt.mb162 0.73MB Generic XYZ sounding format
HDCS_Data_Okeanos_March_2011_2011-239_0084_20110827_231058_EX1105_MB.txt.mb162 4.95MB Generic XYZ sounding format
HDCS_Data_Okeanos_March_2011_2011-239_0085_20110827_235705_EX1105_MB.txt.mb162 0.93MB Generic XYZ sounding format
HDCS_Data_Okeanos_March_2011_2011-240_0086_20110828_000558_EX1105_MB.txt.mb162 5.41MB Generic XYZ sounding format
HDCS_Data_Okeanos_March_2011_2011-240_0088_20110828_015458_EX1105_MB.txt.mb162 1.37MB Generic XYZ sounding format
HDCS_Data_Okeanos_March_2011_2011-240_0089_20110828_020950_EX1105_MB.txt.mb162 4.64MB Generic XYZ sounding format
HDCS_Data_Okeanos_March_2011_2011-240_0090_20110828_030001_EX1105_MB.txt.mb162 5.41MB Generic XYZ sounding format
HDCS_Data_Okeanos_March_2011_2011-240_0091_20110828_040004_EX1105_MB.txt.mb162 5.27MB Generic XYZ sounding format
HDCS_Data_Okeanos_March_2011_2011-240_0092_20110828_050002_EX1105_MB.txt.mb162 1.50MB Generic XYZ sounding format
HDCS_Data_Okeanos_March_2011_2011-240_0093_20110828_051641_EX1105_MB.txt.mb162 3.91MB Generic XYZ sounding format
HDCS_Data_Okeanos_March_2011_2011-240_0094_20110828_060003_EX1105_MB.txt.mb162 5.27MB Generic XYZ sounding format
HDCS_Data_Okeanos_March_2011_2011-240_0095_20110828_070001_EX1105_MB.txt.mb162 5.42MB Generic XYZ sounding format
HDCS_Data_Okeanos_March_2011_2011-240_0096_20110828_080005_EX1105_MB.txt.mb162 3.28MB Generic XYZ sounding format
HDCS_Data_Okeanos_March_2011_2011-240_0097_20110828_083824_EX1105_MB.txt.mb162 0.66MB Generic XYZ sounding format
HDCS_Data_Okeanos_March_2011_2011-240_0098_20110828_084609_EX1105_MB.txt.mb162 0.95MB Generic XYZ sounding format
HDCS_Data_Okeanos_March_2011_2011-240_0099_20110828_090005_EX1105_MB.txt.mb162 4.18MB Generic XYZ sounding format
HDCS_Data_Okeanos_March_2011_2011-240_0100_20110828_100004_EX1105_MB.txt.mb162 4.22MB Generic XYZ sounding format
HDCS_Data_Okeanos_March_2011_2011-240_0101_20110828_110002_EX1105_MB.txt.mb162 4.28MB Generic XYZ sounding format
HDCS_Data_Okeanos_March_2011_2011-240_0102_20110828_120002_EX1105_MB.txt.mb162 0.79MB Generic XYZ sounding format
HDCS_Data_Okeanos_March_2011_2011-240_0103_20110828_121045_EX1105_MB.txt.mb162 0.62MB Generic XYZ sounding format
HDCS_Data_Okeanos_March_2011_2011-240_0104_20110828_121728_EX1105_MB.txt.mb162 4.07MB Generic XYZ sounding format
HDCS_Data_Okeanos_March_2011_2011-240_0105_20110828_131231_EX1105_MB.txt.mb162 3.52MB Generic XYZ sounding format
HDCS_Data_Okeanos_March_2011_2011-240_0106_20110828_140002_EX1105_MB.txt.mb162 4.34MB Generic XYZ sounding format
HDCS_Data_Okeanos_March_2011_2011-240_0107_20110828_150003_EX1105_MB.txt.mb162 8.6KB Generic XYZ sounding format
HDCS_Data_Okeanos_March_2011_2011-240_0108_20110828_150009_EX1105_MB.txt.mb162 1.63MB Generic XYZ sounding format
HDCS_Data_Okeanos_March_2011_2011-240_0109_20110828_152358_EX1105_MB.txt.mb162 0.86MB Generic XYZ sounding format
HDCS_Data_Okeanos_March_2011_2011-240_0110_20110828_153618_EX1105_MB.txt.mb162 1.73MB Generic XYZ sounding format
HDCS_Data_Okeanos_March_2011_2011-240_0111_20110828_160103_EX1105_MB.txt.mb162 4.26MB Generic XYZ sounding format
HDCS_Data_Okeanos_March_2011_2011-240_0112_20110828_170103_EX1105_MB.txt.mb162 4.44MB Generic XYZ sounding format
HDCS_Data_Okeanos_March_2011_2011-240_0113_20110828_180047_EX1105_MB.txt.mb162 4.49MB Generic XYZ sounding format
HDCS_Data_Okeanos_March_2011_2011-240_0114_20110828_190043_EX1105_MB.txt.mb162 27.5KB Generic XYZ sounding format
HDCS_Data_Okeanos_March_2011_2011-240_0115_20110828_190100_EX1105_MB.txt.mb162 1.39MB Generic XYZ sounding format
HDCS_Data_Okeanos_March_2011_2011-240_0116_20110828_191929_EX1105_MB.txt.mb162 3.29MB Generic XYZ sounding format
HDCS_Data_Okeanos_March_2011_2011-240_0117_20110828_200320_EX1105_MB.txt.mb162 4.45MB Generic XYZ sounding format
HDCS_Data_Okeanos_March_2011_2011-240_0118_20110828_210323_EX1105_MB.txt.mb162 4.12MB Generic XYZ sounding format
HDCS_Data_Okeanos_March_2011_2011-240_0119_20110828_220000_EX1105_MB.txt.mb162 2.92MB Generic XYZ sounding format
HDCS_Data_Okeanos_March_2011_2011-240_0120_20110828_223226_EX1105_MB.txt.mb162 1.51MB Generic XYZ sounding format
HDCS_Data_Okeanos_March_2011_2011-240_0121_20110828_224928_EX1105_MB.txt.mb162 4.37MB Generic XYZ sounding format
HDCS_Data_Okeanos_March_2011_2011-240_0122_20110828_234930_EX1105_MB.txt.mb162 0.80MB Generic XYZ sounding format
HDCS_Data_Okeanos_March_2011_2011-241_0123_20110829_000001_EX1105_MB.txt.mb162 4.41MB Generic XYZ sounding format
HDCS_Data_Okeanos_March_2011_2011-241_0124_20110829_010005_EX1105_MB.txt.mb162 4.61MB Generic XYZ sounding format
HDCS_Data_Okeanos_March_2011_2011-241_0125_20110829_020003_EX1105_MB.txt.mb162 1.10MB Generic XYZ sounding format
HDCS_Data_Okeanos_March_2011_2011-241_0126_20110829_021145_EX1105_MB.txt.mb162 1.62MB Generic XYZ sounding format
HDCS_Data_Okeanos_March_2011_2011-241_0127_20110829_022901_EX1105_MB.txt.mb162 4.58MB Generic XYZ sounding format
HDCS_Data_Okeanos_March_2011_2011-241_0128_20110829_032901_EX1105_MB.txt.mb162 5.17MB Generic XYZ sounding format
HDCS_Data_Okeanos_March_2011_2011-241_0129_20110829_042900_EX1105_MB.txt.mb162 5.18MB Generic XYZ sounding format
HDCS_Data_Okeanos_March_2011_2011-241_0130_20110829_052902_EX1105_MB.txt.mb162 4.31MB Generic XYZ sounding format
HDCS_Data_Okeanos_March_2011_2011-241_0131_20110829_061952_EX1105_MB.txt.mb162 1.14MB Generic XYZ sounding format
HDCS_Data_Okeanos_March_2011_2011-241_0132_20110829_063334_EX1105_MB.txt.mb162 5.14MB Generic XYZ sounding format
HDCS_Data_Okeanos_March_2011_2011-241_0133_20110829_073332_EX1105_MB.txt.mb162 5.17MB Generic XYZ sounding format
HDCS_Data_Okeanos_March_2011_2011-241_0134_20110829_083333_EX1105_MB.txt.mb162 4.94MB Generic XYZ sounding format
HDCS_Data_Okeanos_March_2011_2011-241_0135_20110829_093335_EX1105_MB.txt.mb162 4.84MB Generic XYZ sounding format
HDCS_Data_Okeanos_March_2011_2011-241_0136_20110829_103141_EX1105_MB.txt.mb162 0.98MB Generic XYZ sounding format
HDCS_Data_Okeanos_March_2011_2011-241_0137_20110829_104354_EX1105_MB.txt.mb162 1.38MB Generic XYZ sounding format
HDCS_Data_Okeanos_March_2011_2011-241_0138_20110829_110031_EX1105_MB.txt.mb162 5.70MB Generic XYZ sounding format
HDCS_Data_Okeanos_March_2011_2011-241_0139_20110829_120031_EX1105_MB.txt.mb162 3.77MB Generic XYZ sounding format
HDCS_Data_Okeanos_March_2011_2011-241_0140_20110829_201944_EX1105_MB.txt.mb162 1.76MB Generic XYZ sounding format
HDCS_Data_Okeanos_March_2011_2011-241_0141_20110829_210239_EX1105_MB.txt.mb162 5.35MB Generic XYZ sounding format
HDCS_Data_Okeanos_March_2011_2011-241_0142_20110829_220237_EX1105_MB.txt.mb162 5.50MB Generic XYZ sounding format
HDCS_Data_Okeanos_March_2011_2011-241_0143_20110829_230238_EX1105_MB.txt.mb162 0.58MB Generic XYZ sounding format
HDCS_Data_Okeanos_March_2011_2011-241_0144_20110829_230858_EX1105_MB.txt.mb162 5.41MB Generic XYZ sounding format
HDCS_Data_Okeanos_March_2011_2011-242_0145_20110830_000859_EX1105_MB.txt.mb162 71.7KB Generic XYZ sounding format
HDCS_Data_Okeanos_March_2011_2011-242_0146_20110830_000956_EX1105_MB.txt.mb162 4.01MB Generic XYZ sounding format
HDCS_Data_Okeanos_March_2011_2011-242_0147_20110830_005416_EX1105_MB.txt.mb162 1.33MB Generic XYZ sounding format
HDCS_Data_Okeanos_March_2011_2011-242_0148_20110830_010821_EX1105_MB.txt.mb162 5.02MB Generic XYZ sounding format
HDCS_Data_Okeanos_March_2011_2011-242_0149_20110830_020822_EX1105_MB.txt.mb162 5.06MB Generic XYZ sounding format
HDCS_Data_Okeanos_March_2011_2011-242_0150_20110830_030817_EX1105_MB.txt.mb162 1.55MB Generic XYZ sounding format
HDCS_Data_Okeanos_March_2011_2011-242_0151_20110830_032600_EX1105_MB.txt.mb162 4.94MB Generic XYZ sounding format
HDCS_Data_Okeanos_March_2011_2011-242_0152_20110830_042559_EX1105_MB.txt.mb162 5.62MB Generic XYZ sounding format
HDCS_Data_Okeanos_March_2011_2011-242_0153_20110830_052600_EX1105_MB.txt.mb162 5.74MB Generic XYZ sounding format
HDCS_Data_Okeanos_March_2011_2011-242_0154_20110830_062558_EX1105_MB.txt.mb162 1.65MB Generic XYZ sounding format
HDCS_Data_Okeanos_March_2011_2011-242_0155_20110830_064330_EX1105_MB.txt.mb162 0.76MB Generic XYZ sounding format
HDCS_Data_Okeanos_March_2011_2011-242_0156_20110830_065135_EX1105_MB.txt.mb162 0.93MB Generic XYZ sounding format
HDCS_Data_Okeanos_March_2011_2011-242_0157_20110830_070119_EX1105_MB.txt.mb162 5.12MB Generic XYZ sounding format
HDCS_Data_Okeanos_March_2011_2011-242_0158_20110830_080050_EX1105_MB.txt.mb162 5.05MB Generic XYZ sounding format
HDCS_Data_Okeanos_March_2011_2011-242_0159_20110830_090050_EX1105_MB.txt.mb162 5.00MB Generic XYZ sounding format
HDCS_Data_Okeanos_March_2011_2011-242_0160_20110830_100047_EX1105_MB.txt.mb162 4.16MB Generic XYZ sounding format
HDCS_Data_Okeanos_March_2011_2011-242_0161_20110830_105219_EX1105_MB.txt.mb162 0.79MB Generic XYZ sounding format
HDCS_Data_Okeanos_March_2011_2011-242_0162_20110830_110148_EX1105_MB.txt.mb162 5.32MB Generic XYZ sounding format
HDCS_Data_Okeanos_March_2011_2011-242_0163_20110830_120151_EX1105_MB.txt.mb162 5.33MB Generic XYZ sounding format
HDCS_Data_Okeanos_March_2011_2011-242_0164_20110830_130153_EX1105_MB.txt.mb162 5.50MB Generic XYZ sounding format
HDCS_Data_Okeanos_March_2011_2011-242_0165_20110830_140148_EX1105_MB.txt.mb162 6.67MB Generic XYZ sounding format
HDCS_Data_Okeanos_March_2011_2011-242_0166_20110830_150148_EX1105_MB.txt.mb162 4.41MB Generic XYZ sounding format
HDCS_Data_Okeanos_March_2011_2011-242_0168_20110830_153927_EX1105_MB.txt.mb162 2.71MB Generic XYZ sounding format
HDCS_Data_Okeanos_March_2011_2011-242_0169_20110830_160106_EX1105_MB.txt.mb162 5.09MB Generic XYZ sounding format
HDCS_Data_Okeanos_March_2011_2011-242_0170_20110830_164219_EX1105_MB.txt.mb162 6.62MB Generic XYZ sounding format
HDCS_Data_Okeanos_March_2011_2011-242_0171_20110830_174223_EX1105_MB.txt.mb162 5.76MB Generic XYZ sounding format
HDCS_Data_Okeanos_March_2011_2011-242_0172_20110830_184219_EX1105_MB.txt.mb162 0.81MB Generic XYZ sounding format
HDCS_Data_Okeanos_March_2011_2011-242_0173_20110830_185117_EX1105_MB.txt.mb162 5.44MB Generic XYZ sounding format
HDCS_Data_Okeanos_March_2011_2011-242_0174_20110830_195119_EX1105_MB.txt.mb162 5.98MB Generic XYZ sounding format
HDCS_Data_Okeanos_March_2011_2011-242_0175_20110830_205119_EX1105_MB.txt.mb162 1.46MB Generic XYZ sounding format
HDCS_Data_Okeanos_March_2011_2011-242_0176_20110830_210420_EX1105_MB.txt.mb162 3.99MB Generic XYZ sounding format
HDCS_Data_Okeanos_March_2011_2011-242_0177_20110830_213831_EX1105_MB.txt.mb162 2.31MB Generic XYZ sounding format
HDCS_Data_Okeanos_March_2011_2011-242_0178_20110830_215736_EX1105_MB.txt.mb162 0.92MB Generic XYZ sounding format
HDCS_Data_Okeanos_March_2011_2011-242_0179_20110830_220517_EX1105_MB.txt.mb162 490.5KB Generic XYZ sounding format
HDCS_Data_Okeanos_March_2011_2011-242_0180_20110830_220912_EX1105_MB.txt.mb162 2.13MB Generic XYZ sounding format
HDCS_Data_Okeanos_March_2011_2011-242_0181_20110830_222656_EX1105_MB.txt.mb162 1.20MB Generic XYZ sounding format
HDCS_Data_Okeanos_March_2011_2011-242_0182_20110830_223647_EX1105_MB.txt.mb162 422.9KB Generic XYZ sounding format
HDCS_Data_Okeanos_March_2011_2011-242_0183_20110830_224009_EX1105_MB.txt.mb162 4.38MB Generic XYZ sounding format
HDCS_Data_Okeanos_March_2011_2011-242_0184_20110830_231828_EX1105_MB.txt.mb162 2.48MB Generic XYZ sounding format
HDCS_Data_Okeanos_March_2011_2011-242_0185_20110830_233955_EX1105_MB.txt.mb162 4.82MB Generic XYZ sounding format
HDCS_Data_Okeanos_March_2011_2011-243_0186_20110831_002630_EX1105_MB.txt.mb162 6.22MB Generic XYZ sounding format
HDCS_Data_Okeanos_March_2011_2011-243_0187_20110831_012631_EX1105_MB.txt.mb162 0.71MB Generic XYZ sounding format
HDCS_Data_Okeanos_March_2011_2011-243_0188_20110831_013352_EX1105_MB.txt.mb162 2.84MB Generic XYZ sounding format
HDCS_Data_Okeanos_March_2011_2011-243_0189_20110831_020118_EX1105_MB.txt.mb162 0.60MB Generic XYZ sounding format
HDCS_Data_Okeanos_March_2011_2011-243_0190_20110831_020718_EX1105_MB.txt.mb162 1.33MB Generic XYZ sounding format
HDCS_Data_Okeanos_March_2011_2011-243_0191_20110831_021952_EX1105_MB.txt.mb162 3.67MB Generic XYZ sounding format
HDCS_Data_Okeanos_March_2011_2011-243_0192_20110831_025336_EX1105_MB.txt.mb162 1.27MB Generic XYZ sounding format
HDCS_Data_Okeanos_March_2011_2011-243_0193_20110831_030540_EX1105_MB.txt.mb162 3.27MB Generic XYZ sounding format
HDCS_Data_Okeanos_March_2011_2011-243_0194_20110831_033448_EX1105_MB.txt.mb162 0.97MB Generic XYZ sounding format
HDCS_Data_Okeanos_March_2011_2011-243_0195_20110831_034347_EX1105_MB.txt.mb162 3.62MB Generic XYZ sounding format
HDCS_Data_Okeanos_March_2011_2011-243_0197_20110831_041702_EX1105_MB.txt.mb162 0.94MB Generic XYZ sounding format
HDCS_Data_Okeanos_March_2011_2011-243_0198_20110831_042550_EX1105_MB.txt.mb162 3.52MB Generic XYZ sounding format
HDCS_Data_Okeanos_March_2011_2011-243_0199_20110831_045809_EX1105_MB.txt.mb162 3.24MB Generic XYZ sounding format
HDCS_Data_Okeanos_March_2011_2011-243_0200_20110831_053722_EX1105_MB.txt.mb162 3.62MB Generic XYZ sounding format
HDCS_Data_Okeanos_March_2011_2011-243_0201_20110831_061416_EX1105_MB.txt.mb162 0.60MB Generic XYZ sounding format
HDCS_Data_Okeanos_March_2011_2011-243_0202_20110831_061923_EX1105_MB.txt.mb162 4.65MB Generic XYZ sounding format
HDCS_Data_Okeanos_March_2011_2011-243_0203_20110831_070651_EX1105_MB.txt.mb162 0.55MB Generic XYZ sounding format
HDCS_Data_Okeanos_March_2011_2011-243_0204_20110831_071238_EX1105_MB.txt.mb162 4.52MB Generic XYZ sounding format
HDCS_Data_Okeanos_March_2011_2011-243_0205_20110831_080033_EX1105_MB.txt.mb162 0.77MB Generic XYZ sounding format
HDCS_Data_Okeanos_March_2011_2011-243_0206_20110831_080708_EX1105_MB.txt.mb162 5.06MB Generic XYZ sounding format
HDCS_Data_Okeanos_March_2011_2011-243_0207_20110831_090003_EX1105_MB.txt.mb162 0.67MB Generic XYZ sounding format
HDCS_Data_Okeanos_March_2011_2011-243_0208_20110831_090713_EX1105_MB.txt.mb162 0.81MB Generic XYZ sounding format
HDCS_Data_Okeanos_March_2011_2011-243_0209_20110831_091539_EX1105_MB.txt.mb162 5.95MB Generic XYZ sounding format
HDCS_Data_Okeanos_March_2011_2011-243_0210_20110831_101540_EX1105_MB.txt.mb162 360.9KB Generic XYZ sounding format
HDCS_Data_Okeanos_March_2011_2011-243_0211_20110831_101903_EX1105_MB.txt.mb162 0.93MB Generic XYZ sounding format
HDCS_Data_Okeanos_March_2011_2011-243_0212_20110831_102736_EX1105_MB.txt.mb162 3.52MB Generic XYZ sounding format
HDCS_Data_Okeanos_March_2011_2011-243_0213_20110831_110004_EX1105_MB.txt.mb162 3.77MB Generic XYZ sounding format
HDCS_Data_Okeanos_March_2011_2011-243_0214_20110831_113734_EX1105_MB.txt.mb162 0.95MB Generic XYZ sounding format
HDCS_Data_Okeanos_March_2011_2011-243_0215_20110831_114647_EX1105_MB.txt.mb162 4.98MB Generic XYZ sounding format
HDCS_Data_Okeanos_March_2011_2011-243_0216_20110831_124647_EX1105_MB.txt.mb162 1.01MB Generic XYZ sounding format
HDCS_Data_Okeanos_March_2011_2011-243_0217_20110831_125743_EX1105_MB.txt.mb162 2.70MB Generic XYZ sounding format
HDCS_Data_Okeanos_March_2011_2011-243_0218_20110831_131802_EX1105_MB.txt.mb162 4.76MB Generic XYZ sounding format
HDCS_Data_Okeanos_March_2011_2011-243_0219_20110831_140122_EX1105_MB.txt.mb162 4.04MB Generic XYZ sounding format
HDCS_Data_Okeanos_March_2011_2011-243_0220_20110831_144209_EX1105_MB.txt.mb162 0.80MB Generic XYZ sounding format
HDCS_Data_Okeanos_March_2011_2011-243_0221_20110831_145024_EX1105_MB.txt.mb162 5.88MB Generic XYZ sounding format
HDCS_Data_Okeanos_March_2011_2011-243_0222_20110831_155027_EX1105_MB.txt.mb162 2.83MB Generic XYZ sounding format
HDCS_Data_Okeanos_March_2011_2011-243_0223_20110831_161458_EX1105_MB.txt.mb162 0.93MB Generic XYZ sounding format
HDCS_Data_Okeanos_March_2011_2011-243_0224_20110831_162215_EX1105_MB.txt.mb162 6.30MB Generic XYZ sounding format
HDCS_Data_Okeanos_March_2011_2011-243_0225_20110831_172216_EX1105_MB.txt.mb162 2.30MB Generic XYZ sounding format
HDCS_Data_Okeanos_March_2011_2011-243_0226_20110831_174629_EX1105_MB.txt.mb162 0.71MB Generic XYZ sounding format
HDCS_Data_Okeanos_March_2011_2011-243_0227_20110831_175403_EX1105_MB.txt.mb162 6.07MB Generic XYZ sounding format
HDCS_Data_Okeanos_March_2011_2011-243_0228_20110831_185404_EX1105_MB.txt.mb162 2.42MB Generic XYZ sounding format
HDCS_Data_Okeanos_March_2011_2011-243_0229_20110831_191611_EX1105_MB.txt.mb162 7.19MB Generic XYZ sounding format
HDCS_Data_Okeanos_March_2011_2011-243_0230_20110831_201612_EX1105_MB.txt.mb162 4.91MB Generic XYZ sounding format
HDCS_Data_Okeanos_March_2011_2011-243_0231_20110831_210131_EX1105_MB.txt.mb162 4.03MB Generic XYZ sounding format
HDCS_Data_Okeanos_March_2011_2011-243_0232_20110831_214501_EX1105_MB.txt.mb162 5.79MB Generic XYZ sounding format
HDCS_Data_Okeanos_March_2011_2011-243_0233_20110831_224502_EX1105_MB.txt.mb162 1.70MB Generic XYZ sounding format
HDCS_Data_Okeanos_March_2011_2011-243_0234_20110831_230044_EX1105_MB.txt.mb162 2.03MB Generic XYZ sounding format
HDCS_Data_Okeanos_March_2011_2011-243_0235_20110831_231922_EX1105_MB.txt.mb162 0.84MB Generic XYZ sounding format
HDCS_Data_Okeanos_March_2011_2011-243_0236_20110831_232628_EX1105_MB.txt.mb162 0.86MB Generic XYZ sounding format
HDCS_Data_Okeanos_March_2011_2011-243_0237_20110831_233410_EX1105_MB.txt.mb162 6.34MB Generic XYZ sounding format
HDCS_Data_Okeanos_March_2011_2011-244_0238_20110901_003411_EX1105_MB.txt.mb162 1.84MB Generic XYZ sounding format
HDCS_Data_Okeanos_March_2011_2011-244_0239_20110901_005338_EX1105_MB.txt.mb162 0.70MB Generic XYZ sounding format
HDCS_Data_Okeanos_March_2011_2011-244_0240_20110901_010104_EX1105_MB.txt.mb162 4.81MB Generic XYZ sounding format
HDCS_Data_Okeanos_March_2011_2011-244_0241_20110901_015031_EX1105_MB.txt.mb162 1.84MB Generic XYZ sounding format
HDCS_Data_Okeanos_March_2011_2011-244_0242_20110901_020749_EX1105_MB.txt.mb162 1.69MB Generic XYZ sounding format
HDCS_Data_Okeanos_March_2011_2011-244_0243_20110901_022334_EX1105_MB.txt.mb162 0.64MB Generic XYZ sounding format
HDCS_Data_Okeanos_March_2011_2011-244_0244_20110901_022908_EX1105_MB.txt.mb162 0.83MB Generic XYZ sounding format
HDCS_Data_Okeanos_March_2011_2011-244_0245_20110901_023615_EX1105_MB.txt.mb162 335.9KB Generic XYZ sounding format
HDCS_Data_Okeanos_March_2011_2011-244_0246_20110901_030002_EX1105_MB.txt.mb162 5.69MB Generic XYZ sounding format
HDCS_Data_Okeanos_March_2011_2011-244_0247_20110901_040005_EX1105_MB.txt.mb162 2.36MB Generic XYZ sounding format
HDCS_Data_Okeanos_March_2011_2011-244_0248_20110901_042722_EX1105_MB.txt.mb162 196.8KB Generic XYZ sounding format
HDCS_Data_Okeanos_March_2011_2011-244_0249_20110901_042955_EX1105_MB.txt.mb162 1.69MB Generic XYZ sounding format
HDCS_Data_Okeanos_March_2011_2011-244_0250_20110901_045005_EX1105_MB.txt.mb162 511.0KB Generic XYZ sounding format
HDCS_Data_Okeanos_March_2011_2011-244_0251_20110901_054310_EX1105_MB.txt.mb162 1.27MB Generic XYZ sounding format
HDCS_Data_Okeanos_March_2011_2011-244_0252_20110901_060517_EX1105_MB.txt.mb162 160.0KB Generic XYZ sounding format
HDCS_Data_Okeanos_March_2011_2011-244_0253_20110901_061514_EX1105_MB.txt.mb162 0.61MB Generic XYZ sounding format
HDCS_Data_Okeanos_March_2011_2011-244_0254_20110901_064412_EX1105_MB.txt.mb162 3.22MB Generic XYZ sounding format
HDCS_Data_Okeanos_March_2011_2011-244_0255_20110901_072623_EX1105_MB.txt.mb162 5.23MB Generic XYZ sounding format
HDCS_Data_Okeanos_March_2011_2011-244_0256_20110901_082625_EX1105_MB.txt.mb162 5.37MB Generic XYZ sounding format
HDCS_Data_Okeanos_March_2011_2011-244_0257_20110901_092632_EX1105_MB.txt.mb162 1.61MB Generic XYZ sounding format
HDCS_Data_Okeanos_March_2011_2011-244_0258_20110901_094506_EX1105_MB.txt.mb162 323.8KB Generic XYZ sounding format
HDCS_Data_Okeanos_March_2011_2011-244_0259_20110901_100252_EX1105_MB.txt.mb162 0.81MB Generic XYZ sounding format
HDCS_Data_Okeanos_March_2011_2011-244_0260_20110901_104529_EX1105_MB.txt.mb162 4.30MB Generic XYZ sounding format
HDCS_Data_Okeanos_March_2011_2011-244_0261_20110901_114531_EX1105_MB.txt.mb162 3.19MB Generic XYZ sounding format
HDCS_Data_Okeanos_March_2011_2011-244_0262_20110901_124527_EX1105_MB.txt.mb162 3.78MB Generic XYZ sounding format
HDCS_Data_Okeanos_March_2011_2011-244_0263_20110901_134528_EX1105_MB.txt.mb162 2.73MB Generic XYZ sounding format
HDCS_Data_Okeanos_March_2011_2011-244_0264_20110901_143441_EX1105_MB.txt.mb162 5.08MB Generic XYZ sounding format
HDCS_Data_Okeanos_March_2011_2011-244_0265_20110901_153440_EX1105_MB.txt.mb162 5.34MB Generic XYZ sounding format
HDCS_Data_Okeanos_March_2011_2011-244_0266_20110901_163438_EX1105_MB.txt.mb162 2.46MB Generic XYZ sounding format
HDCS_Data_Okeanos_March_2011_2011-244_0267_20110901_165955_EX1105_MB.txt.mb162 5.72MB Generic XYZ sounding format
HDCS_Data_Okeanos_March_2011_2011-244_0268_20110901_175956_EX1105_MB.txt.mb162 3.15MB Generic XYZ sounding format
HDCS_Data_Okeanos_March_2011_2011-244_0269_20110901_185955_EX1105_MB.txt.mb162 4.35MB Generic XYZ sounding format
HDCS_Data_Okeanos_March_2011_2011-244_0270_20110901_195954_EX1105_MB.txt.mb162 18.3KB Generic XYZ sounding format
HDCS_Data_Okeanos_March_2011_2011-244_0271_20110901_200016_EX1105_MB.txt.mb162 4.59MB Generic XYZ sounding format
HDCS_Data_Okeanos_March_2011_2011-244_0272_20110901_210017_EX1105_MB.txt.mb162 3.96MB Generic XYZ sounding format
HDCS_Data_Okeanos_March_2011_2011-244_0273_20110901_220016_EX1105_MB.txt.mb162 3.08MB Generic XYZ sounding format
HDCS_Data_Okeanos_March_2011_2011-244_0274_20110901_230017_EX1105_MB.txt.mb162 2.05MB Generic XYZ sounding format
HDCS_Data_Okeanos_March_2011_2011-245_0275_20110902_000017_EX1105_MB.txt.mb162 2.39MB Generic XYZ sounding format
HDCS_Data_Okeanos_March_2011_2011-245_0276_20110902_010019_EX1105_MB.txt.mb162 2.54MB Generic XYZ sounding format
HDCS_Data_Okeanos_March_2011_2011-245_0277_20110902_014535_EX1105_MB.txt.mb162 0.78MB Generic XYZ sounding format
HDCS_Data_Okeanos_March_2011_2011-245_0278_20110902_020001_EX1105_MB.txt.mb162 5.39MB Generic XYZ sounding format
HDCS_Data_Okeanos_March_2011_2011-245_0279_20110902_030001_EX1105_MB.txt.mb162 5.58MB Generic XYZ sounding format
HDCS_Data_Okeanos_March_2011_2011-245_0280_20110902_040001_EX1105_MB.txt.mb162 4.56MB Generic XYZ sounding format
HDCS_Data_Okeanos_March_2011_2011-245_0281_20110902_050003_EX1105_MB.txt.mb162 3.95MB Generic XYZ sounding format
HDCS_Data_Okeanos_March_2011_2011-245_0282_20110902_060004_EX1105_MB.txt.mb162 5.29MB Generic XYZ sounding format
HDCS_Data_Okeanos_March_2011_2011-245_0283_20110902_070002_EX1105_MB.txt.mb162 6.67MB Generic XYZ sounding format
HDCS_Data_Okeanos_March_2011_2011-245_0284_20110902_080003_EX1105_MB.txt.mb162 6.68MB Generic XYZ sounding format
HDCS_Data_Okeanos_March_2011_2011-245_0285_20110902_090002_EX1105_MB.txt.mb162 6.71MB Generic XYZ sounding format
HDCS_Data_Okeanos_March_2011_2011-245_0286_20110902_100001_EX1105_MB.txt.mb162 6.15MB Generic XYZ sounding format
HDCS_Data_Okeanos_March_2011_2011-245_0287_20110902_110003_EX1105_MB.txt.mb162 3.61MB Generic XYZ sounding format
HDCS_Data_Okeanos_March_2011_2011-245_0288_20110902_120007_EX1105_MB.txt.mb162 2.45MB Generic XYZ sounding format
HDCS_Data_Okeanos_March_2011_2011-245_0289_20110902_130002_EX1105_MB.txt.mb162 2.88MB Generic XYZ sounding format
HDCS_Data_Okeanos_March_2011_2011-245_0290_20110902_140001_EX1105_MB.txt.mb162 3.49MB Generic XYZ sounding format
HDCS_Data_Okeanos_March_2011_2011-245_0291_20110902_150001_EX1105_MB.txt.mb162 3.71MB Generic XYZ sounding format
HDCS_Data_Okeanos_March_2011_2011-245_0292_20110902_160004_EX1105_MB.txt.mb162 4.55MB Generic XYZ sounding format
HDCS_Data_Okeanos_March_2011_2011-245_0293_20110902_165959_EX1105_MB.txt.mb162 5.45MB Generic XYZ sounding format
HDCS_Data_Okeanos_March_2011_2011-245_0294_20110902_180001_EX1105_MB.txt.mb162 4.75MB Generic XYZ sounding format
HDCS_Data_Okeanos_March_2011_2011-245_0295_20110902_190002_EX1105_MB.txt.mb162 5.19MB Generic XYZ sounding format
HDCS_Data_Okeanos_March_2011_2011-245_0296_20110902_200000_EX1105_MB.txt.mb162 4.48MB Generic XYZ sounding format
HDCS_Data_Okeanos_March_2011_2011-245_0297_20110902_210000_EX1105_MB.txt.mb162 1.63MB Generic XYZ sounding format
HDCS_Data_Okeanos_March_2011_2011-245_0298_20110902_212102_EX1105_MB.txt.mb162 339.8KB Generic XYZ sounding format
HDCS_Data_Okeanos_March_2011_2011-245_0299_20110902_212453_EX1105_MB.txt.mb162 2.85MB Generic XYZ sounding format
HDCS_Data_Okeanos_March_2011_2011-245_0300_20110902_220000_EX1105_MB.txt.mb162 1.45MB Generic XYZ sounding format
HDCS_Data_Okeanos_March_2011_2011-245_0301_20110902_221606_EX1105_MB.txt.mb162 4.38MB Generic XYZ sounding format
HDCS_Data_Okeanos_March_2011_2011-245_0302_20110902_231242_EX1105_MB.txt.mb162 357.5KB Generic XYZ sounding format
HDCS_Data_Okeanos_March_2011_2011-245_0303_20110902_231728_EX1105_MB.txt.mb162 4.32MB Generic XYZ sounding format
HDCS_Data_Okeanos_March_2011_2011-246_0304_20110903_001153_EX1105_MB.txt.mb162 3.81MB Generic XYZ sounding format
HDCS_Data_Okeanos_March_2011_2011-246_0305_20110903_005901_EX1105_MB.txt.mb162 4.81MB Generic XYZ sounding format
HDCS_Data_Okeanos_March_2011_2011-246_0306_20110903_015901_EX1105_MB.txt.mb162 3.66MB Generic XYZ sounding format
HDCS_Data_Okeanos_March_2011_2011-246_0307_20110903_025313_EX1105_MB.txt.mb162 1.93MB Generic XYZ sounding format
HDCS_Data_Okeanos_March_2011_2011-246_0308_20110903_031829_EX1105_MB.txt.mb162 0.52MB Generic XYZ sounding format
HDCS_Data_Okeanos_March_2011_2011-246_0309_20110903_032505_EX1105_MB.txt.mb162 0.69MB Generic XYZ sounding format
HDCS_Data_Okeanos_March_2011_2011-246_0310_20110903_034250_EX1105_MB.txt.mb162 3.17MB Generic XYZ sounding format
HDCS_Data_Okeanos_March_2011_2011-246_0311_20110903_043432_EX1105_MB.txt.mb162 1.57MB Generic XYZ sounding format
HDCS_Data_Okeanos_March_2011_2011-246_0312_20110903_050001_EX1105_MB.txt.mb162 3.70MB Generic XYZ sounding format
HDCS_Data_Okeanos_March_2011_2011-246_0313_20110903_060003_EX1105_MB.txt.mb162 3.66MB Generic XYZ sounding format
HDCS_Data_Okeanos_March_2011_2011-246_0314_20110903_070001_EX1105_MB.txt.mb162 4.31MB Generic XYZ sounding format
HDCS_Data_Okeanos_March_2011_2011-246_0315_20110903_080003_EX1105_MB.txt.mb162 3.84MB Generic XYZ sounding format
HDCS_Data_Okeanos_March_2011_2011-246_0316_20110903_090004_EX1105_MB.txt.mb162 3.95MB Generic XYZ sounding format
HDCS_Data_Okeanos_March_2011_2011-246_0317_20110903_100006_EX1105_MB.txt.mb162 234.6KB Generic XYZ sounding format
HDCS_Data_Okeanos_March_2011_2011-246_0318_20110903_100344_EX1105_MB.txt.mb162 0.59MB Generic XYZ sounding format
HDCS_Data_Okeanos_March_2011_2011-246_0319_20110903_101823_EX1105_MB.txt.mb162 236.6KB Generic XYZ sounding format
HDCS_Data_Okeanos_March_2011_2011-246_0320_20110903_102326_EX1105_MB.txt.mb162 1.52MB Generic XYZ sounding format
HDCS_Data_Okeanos_March_2011_2011-246_0321_20110903_110409_EX1105_MB.txt.mb162 1.80MB Generic XYZ sounding format
HDCS_Data_Okeanos_March_2011_2011-246_0322_20110903_120404_EX1105_MB.txt.mb162 1.80MB Generic XYZ sounding format
HDCS_Data_Okeanos_March_2011_2011-246_0323_20110903_130409_EX1105_MB.txt.mb162 1.91MB Generic XYZ sounding format
HDCS_Data_Okeanos_March_2011_2011-246_0324_20110903_140408_EX1105_MB.txt.mb162 1.90MB Generic XYZ sounding format
HDCS_Data_Okeanos_March_2011_2011-246_0325_20110903_150403_EX1105_MB.txt.mb162 1.49MB Generic XYZ sounding format
HDCS_Data_Okeanos_March_2011_2011-246_0326_20110903_155146_EX1105_MB.txt.mb162 468.2KB Generic XYZ sounding format
HDCS_Data_Okeanos_March_2011_2011-246_0327_20110903_183951_EX1105_MB.txt.mb162 1.86MB Generic XYZ sounding format
HDCS_Data_Okeanos_March_2011_2011-246_0328_20110903_193949_EX1105_MB.txt.mb162 2.00MB Generic XYZ sounding format
HDCS_Data_Okeanos_March_2011_2011-246_0329_20110903_203950_EX1105_MB.txt.mb162 1.94MB Generic XYZ sounding format
HDCS_Data_Okeanos_March_2011_2011-246_0330_20110903_213950_EX1105_MB.txt.mb162 0.87MB Generic XYZ sounding format
HDCS_Data_Okeanos_March_2011_2011-246_0331_20110903_220535_EX1105_MB.txt.mb162 1.89MB Generic XYZ sounding format
HDCS_Data_Okeanos_March_2011_2011-246_0332_20110903_230417_EX1105_MB.txt.mb162 0.76MB Generic XYZ sounding format
HDCS_Data_Okeanos_March_2011_2011-246_0333_20110903_232616_EX1105_MB.txt.mb162 0.65MB Generic XYZ sounding format
HDCS_Data_Okeanos_March_2011_2011-246_0334_20110903_234150_EX1105_MB.txt.mb162 0.83MB Generic XYZ sounding format
HDCS_Data_Okeanos_March_2011_2011-247_0335_20110904_000358_EX1105_MB.txt.mb162 2.11MB Generic XYZ sounding format
HDCS_Data_Okeanos_March_2011_2011-247_0336_20110904_010353_EX1105_MB.txt.mb162 2.09MB Generic XYZ sounding format
HDCS_Data_Okeanos_March_2011_2011-247_0337_20110904_020351_EX1105_MB.txt.mb162 2.03MB Generic XYZ sounding format
HDCS_Data_Okeanos_March_2011_2011-247_0338_20110904_030357_EX1105_MB.txt.mb162 3.08MB Generic XYZ sounding format
HDCS_Data_Okeanos_March_2011_2011-247_0339_20110904_040354_EX1105_MB.txt.mb162 2.40MB Generic XYZ sounding format
HDCS_Data_Okeanos_March_2011_2011-247_0340_20110904_050355_EX1105_MB.txt.mb162 0.76MB Generic XYZ sounding format
HDCS_Data_Okeanos_March_2011_2011-247_0341_20110904_052924_EX1105_MB.txt.mb162 0.52MB Generic XYZ sounding format
HDCS_Data_Okeanos_March_2011_2011-247_0342_20110904_054645_EX1105_MB.txt.mb162 442.3KB Generic XYZ sounding format
HDCS_Data_Okeanos_March_2011_2011-247_0343_20110904_060008_EX1105_MB.txt.mb162 2.77MB Generic XYZ sounding format
HDCS_Data_Okeanos_March_2011_2011-247_0344_20110904_070004_EX1105_MB.txt.mb162 5.09MB Generic XYZ sounding format
HDCS_Data_Okeanos_March_2011_2011-247_0345_20110904_080004_EX1105_MB.txt.mb162 4.63MB Generic XYZ sounding format
HDCS_Data_Okeanos_March_2011_2011-247_0346_20110904_090003_EX1105_MB.txt.mb162 3.80MB Generic XYZ sounding format
HDCS_Data_Okeanos_March_2011_2011-247_0347_20110904_100001_EX1105_MB.txt.mb162 1.90MB Generic XYZ sounding format
HDCS_Data_Okeanos_March_2011_2011-247_0348_20110904_102627_EX1105_MB.txt.mb162 1.30MB Generic XYZ sounding format
HDCS_Data_Okeanos_March_2011_2011-247_0349_20110904_104230_EX1105_MB.txt.mb162 1.42MB Generic XYZ sounding format
HDCS_Data_Okeanos_March_2011_2011-247_0350_20110904_110003_EX1105_MB.txt.mb162 4.72MB Generic XYZ sounding format
HDCS_Data_Okeanos_March_2011_2011-247_0351_20110904_120004_EX1105_MB.txt.mb162 5.14MB Generic XYZ sounding format
HDCS_Data_Okeanos_March_2011_2011-247_0352_20110904_130001_EX1105_MB.txt.mb162 5.46MB Generic XYZ sounding format
HDCS_Data_Okeanos_March_2011_2011-247_0353_20110904_140001_EX1105_MB.txt.mb162 5.80MB Generic XYZ sounding format
HDCS_Data_Okeanos_March_2011_2011-247_0354_20110904_150003_EX1105_MB.txt.mb162 5.20MB Generic XYZ sounding format
HDCS_Data_Okeanos_March_2011_2011-247_0355_20110904_160007_EX1105_MB.txt.mb162 1.20MB Generic XYZ sounding format
HDCS_Data_Okeanos_March_2011_2011-247_0356_20110904_161618_EX1105_MB.txt.mb162 5.13MB Generic XYZ sounding format
HDCS_Data_Okeanos_March_2011_2011-247_0357_20110904_171612_EX1105_MB.txt.mb162 5.98MB Generic XYZ sounding format
HDCS_Data_Okeanos_March_2011_2011-247_0358_20110904_181613_EX1105_MB.txt.mb162 5.35MB Generic XYZ sounding format
HDCS_Data_Okeanos_March_2011_2011-247_0359_20110904_191613_EX1105_MB.txt.mb162 5.12MB Generic XYZ sounding format
HDCS_Data_Okeanos_March_2011_2011-247_0360_20110904_201610_EX1105_MB.txt.mb162 4.26MB Generic XYZ sounding format
HDCS_Data_Okeanos_March_2011_2011-247_0361_20110904_210708_EX1105_MB.txt.mb162 1.23MB Generic XYZ sounding format
HDCS_Data_Okeanos_March_2011_2011-247_0362_20110904_212032_EX1105_MB.txt.mb162 4.39MB Generic XYZ sounding format
HDCS_Data_Okeanos_March_2011_2011-247_0363_20110904_220843_EX1105_MB.txt.mb162 6.70MB Generic XYZ sounding format
HDCS_Data_Okeanos_March_2011_2011-247_0364_20110904_230839_EX1105_MB.txt.mb162 6.53MB Generic XYZ sounding format
HDCS_Data_Okeanos_March_2011_2011-248_0365_20110905_000840_EX1105_MB.txt.mb162 6.56MB Generic XYZ sounding format
HDCS_Data_Okeanos_March_2011_2011-248_0366_20110905_010231_EX1105_MB.txt.mb162 7.64MB Generic XYZ sounding format
HDCS_Data_Okeanos_March_2011_2011-248_0367_20110905_020230_EX1105_MB.txt.mb162 6.47MB Generic XYZ sounding format
HDCS_Data_Okeanos_March_2011_2011-248_0368_20110905_025708_EX1105_MB.txt.mb162 1.23MB Generic XYZ sounding format
HDCS_Data_Okeanos_March_2011_2011-248_0369_20110905_030810_EX1105_MB.txt.mb162 7.29MB Generic XYZ sounding format
HDCS_Data_Okeanos_March_2011_2011-248_0370_20110905_040809_EX1105_MB.txt.mb162 6.78MB Generic XYZ sounding format
HDCS_Data_Okeanos_March_2011_2011-248_0371_20110905_050004_EX1105_MB.txt.mb162 7.27MB Generic XYZ sounding format
HDCS_Data_Okeanos_March_2011_2011-248_0372_20110905_060002_EX1105_MB.txt.mb162 7.20MB Generic XYZ sounding format
HDCS_Data_Okeanos_March_2011_2011-248_0373_20110905_070004_EX1105_MB.txt.mb162 5.91MB Generic XYZ sounding format
HDCS_Data_Okeanos_March_2011_2011-248_0374_20110905_075138_EX1105_MB.txt.mb162 1.55MB Generic XYZ sounding format
HDCS_Data_Okeanos_March_2011_2011-248_0375_20110905_080455_EX1105_MB.txt.mb162 7.06MB Generic XYZ sounding format
HDCS_Data_Okeanos_March_2011_2011-248_0376_20110905_090243_EX1105_MB.txt.mb162 7.14MB Generic XYZ sounding format
HDCS_Data_Okeanos_March_2011_2011-248_0377_20110905_100021_EX1105_MB.txt.mb162 7.71MB Generic XYZ sounding format
HDCS_Data_Okeanos_March_2011_2011-248_0378_20110905_110018_EX1105_MB.txt.mb162 8.32MB Generic XYZ sounding format
HDCS_Data_Okeanos_March_2011_2011-248_0379_20110905_120021_EX1105_MB.txt.mb162 7.78MB Generic XYZ sounding format
HDCS_Data_Okeanos_March_2011_2011-248_0380_20110905_130020_EX1105_MB.txt.mb162 1.74MB Generic XYZ sounding format
HDCS_Data_Okeanos_March_2011_2011-248_0381_20110905_131443_EX1105_MB.txt.mb162 5.19MB Generic XYZ sounding format
HDCS_Data_Okeanos_March_2011_2011-248_0382_20110905_140147_EX1105_MB.txt.mb162 2.73MB Generic XYZ sounding format
HDCS_Data_Okeanos_March_2011_2011-248_0383_20110905_150147_EX1105_MB.txt.mb162 1.85MB Generic XYZ sounding format
HDCS_Data_Okeanos_March_2011_2011-248_0384_20110905_160149_EX1105_MB.txt.mb162 1.84MB Generic XYZ sounding format
HDCS_Data_Okeanos_March_2011_2011-248_0385_20110905_170148_EX1105_MB.txt.mb162 1.80MB Generic XYZ sounding format
HDCS_Data_Okeanos_March_2011_2011-248_0386_20110905_180147_EX1105_MB.txt.mb162 1.86MB Generic XYZ sounding format
HDCS_Data_Okeanos_March_2011_2011-248_0387_20110905_190147_EX1105_MB.txt.mb162 0.89MB Generic XYZ sounding format
HDCS_Data_Okeanos_March_2011_2011-248_0388_20110905_193307_EX1105_MB.txt.mb162 1.66MB Generic XYZ sounding format
HDCS_Data_Okeanos_March_2011_2011-248_0389_20110905_203306_EX1105_MB.txt.mb162 1.82MB Generic XYZ sounding format
HDCS_Data_Okeanos_March_2011_2011-248_0390_20110905_213307_EX1105_MB.txt.mb162 1.18MB Generic XYZ sounding format
HDCS_Data_Okeanos_March_2011_2011-248_0391_20110905_221341_EX1105_MB.txt.mb162 65.7KB Generic XYZ sounding format
HDCS_Data_Okeanos_March_2011_2011-248_0392_20110905_221647_EX1105_MB.txt.mb162 1.52MB Generic XYZ sounding format
HDCS_Data_Okeanos_March_2011_2011-248_0393_20110905_231648_EX1105_MB.txt.mb162 1.58MB Generic XYZ sounding format
HDCS_Data_Okeanos_March_2011_2011-249_0394_20110906_001646_EX1105_MB.txt.mb162 1.64MB Generic XYZ sounding format
HDCS_Data_Okeanos_March_2011_2011-249_0395_20110906_011647_EX1105_MB.txt.mb162 1.56MB Generic XYZ sounding format
HDCS_Data_Okeanos_March_2011_2011-249_0396_20110906_021646_EX1105_MB.txt.mb162 1.65MB Generic XYZ sounding format
HDCS_Data_Okeanos_March_2011_2011-249_0397_20110906_031648_EX1105_MB.txt.mb162 1.56MB Generic XYZ sounding format
HDCS_Data_Okeanos_March_2011_2011-249_0398_20110906_041650_EX1105_MB.txt.mb162 1.67MB Generic XYZ sounding format
HDCS_Data_Okeanos_March_2011_2011-249_0399_20110906_051651_EX1105_MB.txt.mb162 1.84MB Generic XYZ sounding format
HDCS_Data_Okeanos_March_2011_2011-249_0401_20110906_061651_EX1105_MB.txt.mb162 1.90MB Generic XYZ sounding format
HDCS_Data_Okeanos_March_2011_2011-249_0402_20110906_071652_EX1105_MB.txt.mb162 1.99MB Generic XYZ sounding format
HDCS_Data_Okeanos_March_2011_2011-249_0403_20110906_081651_EX1105_MB.txt.mb162 2.15MB Generic XYZ sounding format
HDCS_Data_Okeanos_March_2011_2011-249_0404_20110906_091648_EX1105_MB.txt.mb162 3.81MB Generic XYZ sounding format
HDCS_Data_Okeanos_March_2011_2011-249_0405_20110906_101650_EX1105_MB.txt.mb162 2.58MB Generic XYZ sounding format
HDCS_Data_Okeanos_March_2011_2011-249_0406_20110906_110213_EX1105_MB.txt.mb162 3.49MB Generic XYZ sounding format
HDCS_Data_Okeanos_March_2011_2011-249_0407_20110906_120212_EX1105_MB.txt.mb162 2.94MB Generic XYZ sounding format
HDCS_Data_Okeanos_March_2011_2011-249_0408_20110906_130214_EX1105_MB.txt.mb162 2.00MB Generic XYZ sounding format
HDCS_Data_Okeanos_March_2011_2011-249_0409_20110906_140213_EX1105_MB.txt.mb162 1.86MB Generic XYZ sounding format
HDCS_Data_Okeanos_March_2011_2011-249_0410_20110906_150209_EX1105_MB.txt.mb162 1.95MB Generic XYZ sounding format
HDCS_Data_Okeanos_March_2011_2011-249_0411_20110906_160212_EX1105_MB.txt.mb162 2.13MB Generic XYZ sounding format
HDCS_Data_Okeanos_March_2011_2011-249_0412_20110906_170212_EX1105_MB.txt.mb162 2.29MB Generic XYZ sounding format
HDCS_Data_Okeanos_March_2011_2011-249_0413_20110906_180210_EX1105_MB.txt.mb162 1.49MB Generic XYZ sounding format
HDCS_Data_Okeanos_March_2011_2011-249_0414_20110906_184006_EX1105_MB.txt.mb162 2.47MB Generic XYZ sounding format
HDCS_Data_Okeanos_March_2011_2011-249_0415_20110906_194006_EX1105_MB.txt.mb162 2.66MB Generic XYZ sounding format
HDCS_Data_Okeanos_March_2011_2011-249_0416_20110906_204005_EX1105_MB.txt.mb162 2.81MB Generic XYZ sounding format
HDCS_Data_Okeanos_March_2011_2011-249_0417_20110906_214006_EX1105_MB.txt.mb162 0.96MB Generic XYZ sounding format
HDCS_Data_Okeanos_March_2011_2011-249_0418_20110906_220013_EX1105_MB.txt.mb162 3.29MB Generic XYZ sounding format
HDCS_Data_Okeanos_March_2011_2011-249_0419_20110906_223858_EX1105_MB.txt.mb162 467.8KB Generic XYZ sounding format
HDCS_Data_Okeanos_March_2011_2011-249_0420_20110906_224406_EX1105_MB.txt.mb162 4.58MB Generic XYZ sounding format
HDCS_Data_Okeanos_March_2011_2011-249_0421_20110906_233751_EX1105_MB.txt.mb162 149.1KB Generic XYZ sounding format
HDCS_Data_Okeanos_March_2011_2011-249_0422_20110906_234033_EX1105_MB.txt.mb162 0.86MB Generic XYZ sounding format
HDCS_Data_Okeanos_March_2011_2011-249_0423_20110906_235423_EX1105_MB.txt.mb162 3.76MB Generic XYZ sounding format
HDCS_Data_Okeanos_March_2011_2011-250_0424_20110907_005423_EX1105_MB.txt.mb162 0.80MB Generic XYZ sounding format
HDCS_Data_Okeanos_March_2011_2011-250_0425_20110907_010608_EX1105_MB.txt.mb162 4.44MB Generic XYZ sounding format
HDCS_Data_Okeanos_March_2011_2011-250_0426_20110907_020604_EX1105_MB.txt.mb162 2.51MB Generic XYZ sounding format
HDCS_Data_Okeanos_March_2011_2011-250_0427_20110907_023438_EX1105_MB.txt.mb162 1.42MB Generic XYZ sounding format
HDCS_Data_Okeanos_March_2011_2011-250_0428_20110907_025117_EX1105_MB.txt.mb162 4.88MB Generic XYZ sounding format
HDCS_Data_Okeanos_March_2011_2011-250_0429_20110907_035117_EX1105_MB.txt.mb162 4.41MB Generic XYZ sounding format
HDCS_Data_Okeanos_March_2011_2011-250_0430_20110907_045120_EX1105_MB.txt.mb162 2.78MB Generic XYZ sounding format
HDCS_Data_Okeanos_March_2011_2011-250_0431_20110907_053214_EX1105_MB.txt.mb162 4.18MB Generic XYZ sounding format
HDCS_Data_Okeanos_March_2011_2011-250_0432_20110907_063210_EX1105_MB.txt.mb162 379.6KB Generic XYZ sounding format
HDCS_Data_Okeanos_March_2011_2011-250_0433_20110907_063757_EX1105_MB.txt.mb162 1.29MB Generic XYZ sounding format
HDCS_Data_Okeanos_March_2011_2011-250_0434_20110907_065807_EX1105_MB.txt.mb162 4.79MB Generic XYZ sounding format
HDCS_Data_Okeanos_March_2011_2011-250_0435_20110907_075807_EX1105_MB.txt.mb162 2.80MB Generic XYZ sounding format
HDCS_Data_Okeanos_March_2011_2011-250_0436_20110907_083700_EX1105_MB.txt.mb162 0.94MB Generic XYZ sounding format
HDCS_Data_Okeanos_March_2011_2011-250_0437_20110907_085057_EX1105_MB.txt.mb162 4.53MB Generic XYZ sounding format
HDCS_Data_Okeanos_March_2011_2011-250_0438_20110907_095052_EX1105_MB.txt.mb162 4.97MB Generic XYZ sounding format
HDCS_Data_Okeanos_March_2011_2011-250_0439_20110907_104855_EX1105_MB.txt.mb162 502.8KB Generic XYZ sounding format
HDCS_Data_Okeanos_March_2011_2011-250_0440_20110907_105503_EX1105_MB.txt.mb162 2.41MB Generic XYZ sounding format
HDCS_Data_Okeanos_March_2011_2011-250_0441_20110907_112346_EX1105_MB.txt.mb162 5.45MB Generic XYZ sounding format
HDCS_Data_Okeanos_March_2011_2011-250_0442_20110907_122348_EX1105_MB.txt.mb162 0.97MB Generic XYZ sounding format
HDCS_Data_Okeanos_March_2011_2011-250_0443_20110907_123430_EX1105_MB.txt.mb162 1.17MB Generic XYZ sounding format
HDCS_Data_Okeanos_March_2011_2011-250_0444_20110907_124917_EX1105_MB.txt.mb162 0.71MB Generic XYZ sounding format
HDCS_Data_Okeanos_March_2011_2011-250_0445_20110907_125810_EX1105_MB.txt.mb162 0.70MB Generic XYZ sounding format
HDCS_Data_Okeanos_March_2011_2011-250_0446_20110907_130633_EX1105_MB.txt.mb162 2.50MB Generic XYZ sounding format
HDCS_Data_Okeanos_March_2011_2011-250_0447_20110907_134046_EX1105_MB.txt.mb162 3.84MB Generic XYZ sounding format
HDCS_Data_Okeanos_March_2011_2011-250_0448_20110907_144050_EX1105_MB.txt.mb162 4.21MB Generic XYZ sounding format
HDCS_Data_Okeanos_March_2011_2011-250_0449_20110907_154046_EX1105_MB.txt.mb162 0.57MB Generic XYZ sounding format
HDCS_Data_Okeanos_March_2011_2011-250_0450_20110907_154846_EX1105_MB.txt.mb162 389.5KB Generic XYZ sounding format
HDCS_Data_Okeanos_March_2011_2011-250_0451_20110907_155404_EX1105_MB.txt.mb162 3.74MB Generic XYZ sounding format
HDCS_Data_Okeanos_March_2011_2011-250_0452_20110907_165402_EX1105_MB.txt.mb162 3.26MB Generic XYZ sounding format
HDCS_Data_Okeanos_March_2011_2011-250_0453_20110907_175406_EX1105_MB.txt.mb162 0.86MB Generic XYZ sounding format
HDCS_Data_Okeanos_March_2011_2011-250_0454_20110907_180858_EX1105_MB.txt.mb162 182.0KB Generic XYZ sounding format
HDCS_Data_Okeanos_March_2011_2011-250_0456_20110907_183118_EX1105_MB.txt.mb162 3.94MB Generic XYZ sounding format
HDCS_Data_Okeanos_March_2011_2011-250_0457_20110907_193117_EX1105_MB.txt.mb162 4.35MB Generic XYZ sounding format
HDCS_Data_Okeanos_March_2011_2011-250_0458_20110907_203117_EX1105_MB.txt.mb162 2.54MB Generic XYZ sounding format
HDCS_Data_Okeanos_March_2011_2011-250_0459_20110907_210616_EX1105_MB.txt.mb162 0.97MB Generic XYZ sounding format
HDCS_Data_Okeanos_March_2011_2011-250_0460_20110907_211933_EX1105_MB.txt.mb162 5.01MB Generic XYZ sounding format
HDCS_Data_Okeanos_March_2011_2011-250_0461_20110907_221931_EX1105_MB.txt.mb162 3.57MB Generic XYZ sounding format
HDCS_Data_Okeanos_March_2011_2011-250_0462_20110907_230124_EX1105_MB.txt.mb162 5.15MB Generic XYZ sounding format
HDCS_Data_Okeanos_March_2011_2011-251_0463_20110908_000119_EX1105_MB.txt.mb162 1.88MB Generic XYZ sounding format
HDCS_Data_Okeanos_March_2011_2011-251_0464_20110908_002054_EX1105_MB.txt.mb162 2.79MB Generic XYZ sounding format
HDCS_Data_Okeanos_March_2011_2011-251_0465_20110908_005007_EX1105_MB.txt.mb162 3.50MB Generic XYZ sounding format
HDCS_Data_Okeanos_March_2011_2011-251_0466_20110908_012855_EX1105_MB.txt.mb162 251.3KB Generic XYZ sounding format
HDCS_Data_Okeanos_March_2011_2011-251_0467_20110908_013205_EX1105_MB.txt.mb162 0.61MB Generic XYZ sounding format
HDCS_Data_Okeanos_March_2011_2011-251_0468_20110908_013855_EX1105_MB.txt.mb162 193.5KB Generic XYZ sounding format
HDCS_Data_Okeanos_March_2011_2011-251_0469_20110908_014124_EX1105_MB.txt.mb162 9.3KB Generic XYZ sounding format
HDCS_Data_Okeanos_March_2011_2011-251_0470_20110908_014130_EX1105_MB.txt.mb162 2.17MB Generic XYZ sounding format
HDCS_Data_Okeanos_March_2011_2011-251_0471_20110908_020453_EX1105_MB.txt.mb162 437.3KB Generic XYZ sounding format
HDCS_Data_Okeanos_March_2011_2011-251_0472_20110908_020947_EX1105_MB.txt.mb162 0.92MB Generic XYZ sounding format
HDCS_Data_Okeanos_March_2011_2011-251_0473_20110908_022003_EX1105_MB.txt.mb162 5.41MB Generic XYZ sounding format
HDCS_Data_Okeanos_March_2011_2011-251_0474_20110908_032001_EX1105_MB.txt.mb162 3.70MB Generic XYZ sounding format
HDCS_Data_Okeanos_March_2011_2011-251_0475_20110908_040259_EX1105_MB.txt.mb162 5.43MB Generic XYZ sounding format
HDCS_Data_Okeanos_March_2011_2011-251_0476_20110908_050300_EX1105_MB.txt.mb162 4.89MB Generic XYZ sounding format
HDCS_Data_Okeanos_March_2011_2011-251_0477_20110908_055447_EX1105_MB.txt.mb162 2.63MB Generic XYZ sounding format
HDCS_Data_Okeanos_March_2011_2011-251_0478_20110908_062347_EX1105_MB.txt.mb162 3.64MB Generic XYZ sounding format
HDCS_Data_Okeanos_March_2011_2011-251_0479_20110908_070036_EX1105_MB.txt.mb162 5.57MB Generic XYZ sounding format
HDCS_Data_Okeanos_March_2011_2011-251_0480_20110908_080036_EX1105_MB.txt.mb162 5.31MB Generic XYZ sounding format
HDCS_Data_Okeanos_March_2011_2011-251_0481_20110908_090039_EX1105_MB.txt.mb162 2.62MB Generic XYZ sounding format
HDCS_Data_Okeanos_March_2011_2011-251_0482_20110908_092923_EX1105_MB.txt.mb162 1.28MB Generic XYZ sounding format
HDCS_Data_Okeanos_March_2011_2011-251_0483_20110908_094345_EX1105_MB.txt.mb162 1.75MB Generic XYZ sounding format
HDCS_Data_Okeanos_March_2011_2011-251_0484_20110908_100235_EX1105_MB.txt.mb162 5.28MB Generic XYZ sounding format
HDCS_Data_Okeanos_March_2011_2011-251_0485_20110908_110001_EX1105_MB.txt.mb162 6.26MB Generic XYZ sounding format
HDCS_Data_Okeanos_March_2011_2011-251_0486_20110908_120002_EX1105_MB.txt.mb162 6.64MB Generic XYZ sounding format
HDCS_Data_Okeanos_March_2011_2011-251_0487_20110908_130001_EX1105_MB.txt.mb162 2.87MB Generic XYZ sounding format
HDCS_Data_Okeanos_March_2011_2011-251_0488_20110908_132741_EX1105_MB.txt.mb162 2.19MB Generic XYZ sounding format
HDCS_Data_Okeanos_March_2011_2011-251_0489_20110908_134712_EX1105_MB.txt.mb162 6.73MB Generic XYZ sounding format
HDCS_Data_Okeanos_March_2011_2011-251_0490_20110908_144710_EX1105_MB.txt.mb162 7.62MB Generic XYZ sounding format
HDCS_Data_Okeanos_March_2011_2011-251_0491_20110908_154712_EX1105_MB.txt.mb162 2.14MB Generic XYZ sounding format
HDCS_Data_Okeanos_March_2011_2011-251_0492_20110908_160633_EX1105_MB.txt.mb162 1.85MB Generic XYZ sounding format
HDCS_Data_Okeanos_March_2011_2011-251_0493_20110908_162233_EX1105_MB.txt.mb162 3.70MB Generic XYZ sounding format
HDCS_Data_Okeanos_March_2011_2011-251_0494_20110908_165133_EX1105_MB.txt.mb162 4.54MB Generic XYZ sounding format
HDCS_Data_Okeanos_March_2011_2011-251_0495_20110908_172727_EX1105_MB.txt.mb162 6.03MB Generic XYZ sounding format
HDCS_Data_Okeanos_March_2011_2011-251_0496_20110908_181250_EX1105_MB.txt.mb162 1.20MB Generic XYZ sounding format
HDCS_Data_Okeanos_March_2011_2011-251_0497_20110908_182247_EX1105_MB.txt.mb162 8.02MB Generic XYZ sounding format
HDCS_Data_Okeanos_March_2011_2011-251_0498_20110908_192245_EX1105_MB.txt.mb162 1.34MB Generic XYZ sounding format
HDCS_Data_Okeanos_March_2011_2011-251_0499_20110908_193259_EX1105_MB.txt.mb162 3.23MB Generic XYZ sounding format
HDCS_Data_Okeanos_March_2011_2011-251_0500_20110908_200111_EX1105_MB.txt.mb162 1.16MB Generic XYZ sounding format
HDCS_Data_Okeanos_March_2011_2011-251_0501_20110908_201233_EX1105_MB.txt.mb162 6.38MB Generic XYZ sounding format
HDCS_Data_Okeanos_March_2011_2011-251_0502_20110908_210155_EX1105_MB.txt.mb162 5.54MB Generic XYZ sounding format
HDCS_Data_Okeanos_March_2011_2011-251_0503_20110908_214221_EX1105_MB.txt.mb162 1.92MB Generic XYZ sounding format
HDCS_Data_Okeanos_March_2011_2011-251_0504_20110908_215707_EX1105_MB.txt.mb162 8.20MB Generic XYZ sounding format
HDCS_Data_Okeanos_March_2011_2011-251_0505_20110908_225709_EX1105_MB.txt.mb162 3.11MB Generic XYZ sounding format
HDCS_Data_Okeanos_March_2011_2011-251_0506_20110908_234822_EX1105_MB.txt.mb162 1.86MB Generic XYZ sounding format
HDCS_Data_Okeanos_March_2011_2011-252_0507_20110909_000317_EX1105_MB.txt.mb162 0.58MB Generic XYZ sounding format
HDCS_Data_Okeanos_March_2011_2011-252_0508_20110909_000822_EX1105_MB.txt.mb162 7.70MB Generic XYZ sounding format
HDCS_Data_Okeanos_March_2011_2011-252_0509_20110909_010819_EX1105_MB.txt.mb162 8.59MB Generic XYZ sounding format
HDCS_Data_Okeanos_March_2011_2011-252_0510_20110909_020819_EX1105_MB.txt.mb162 359.6KB Generic XYZ sounding format
HDCS_Data_Okeanos_March_2011_2011-252_0511_20110909_021049_EX1105_MB.txt.mb162 1.75MB Generic XYZ sounding format
HDCS_Data_Okeanos_March_2011_2011-252_0512_20110909_022300_EX1105_MB.txt.mb162 8.76MB Generic XYZ sounding format
HDCS_Data_Okeanos_March_2011_2011-252_0513_20110909_032301_EX1105_MB.txt.mb162 5.12MB Generic XYZ sounding format
HDCS_Data_Okeanos_March_2011_2011-252_0514_20110909_040004_EX1105_MB.txt.mb162 4.40MB Generic XYZ sounding format
HDCS_Data_Okeanos_March_2011_2011-252_0515_20110909_043229_EX1105_MB.txt.mb162 1.03MB Generic XYZ sounding format
HDCS_Data_Okeanos_March_2011_2011-252_0516_20110909_044141_EX1105_MB.txt.mb162 2.53MB Generic XYZ sounding format
HDCS_Data_Okeanos_March_2011_2011-252_0517_20110909_050001_EX1105_MB.txt.mb162 8.55MB Generic XYZ sounding format
HDCS_Data_Okeanos_March_2011_2011-252_0518_20110909_060002_EX1105_MB.txt.mb162 8.92MB Generic XYZ sounding format
HDCS_Data_Okeanos_March_2011_2011-252_0519_20110909_070002_EX1105_MB.txt.mb162 2.02MB Generic XYZ sounding format
HDCS_Data_Okeanos_March_2011_2011-252_0520_20110909_071130_EX1105_MB.txt.mb162 1.68MB Generic XYZ sounding format
HDCS_Data_Okeanos_March_2011_2011-252_0521_20110909_072100_EX1105_MB.txt.mb162 6.40MB Generic XYZ sounding format
HDCS_Data_Okeanos_March_2011_2011-252_0522_20110909_080004_EX1105_MB.txt.mb162 9.13MB Generic XYZ sounding format
HDCS_Data_Okeanos_March_2011_2011-252_0523_20110909_090001_EX1105_MB.txt.mb162 7.37MB Generic XYZ sounding format
HDCS_Data_Okeanos_March_2011_2011-252_0524_20110909_095237_EX1105_MB.txt.mb162 1.42MB Generic XYZ sounding format
HDCS_Data_Okeanos_March_2011_2011-252_0525_20110909_100248_EX1105_MB.txt.mb162 8.83MB Generic XYZ sounding format
HDCS_Data_Okeanos_March_2011_2011-252_0526_20110909_110249_EX1105_MB.txt.mb162 9.48MB Generic XYZ sounding format
HDCS_Data_Okeanos_March_2011_2011-252_0527_20110909_120246_EX1105_MB.txt.mb162 9.00MB Generic XYZ sounding format
HDCS_Data_Okeanos_March_2011_2011-252_0528_20110909_125520_EX1105_MB.txt.mb162 4.63MB Generic XYZ sounding format
HDCS_Data_Okeanos_March_2011_2011-252_0529_20110909_132158_EX1105_MB.txt.mb162 0.63MB Generic XYZ sounding format
HDCS_Data_Okeanos_March_2011_2011-252_0530_20110909_132544_EX1105_MB.txt.mb162 3.43MB Generic XYZ sounding format
HDCS_Data_Okeanos_March_2011_2011-252_0531_20110909_134853_EX1105_MB.txt.mb162 3.09MB Generic XYZ sounding format
HDCS_Data_Okeanos_March_2011_2011-252_0532_20110909_141313_EX1105_MB.txt.mb162 1.56MB Generic XYZ sounding format
HDCS_Data_Okeanos_March_2011_2011-252_0533_20110909_142534_EX1105_MB.txt.mb162 3.57MB Generic XYZ sounding format
HDCS_Data_Okeanos_March_2011_2011-252_0534_20110909_145646_EX1105_MB.txt.mb162 150.8KB Generic XYZ sounding format
HDCS_Data_Okeanos_March_2011_2011-252_0535_20110909_145818_EX1105_MB.txt.mb162 2.65MB Generic XYZ sounding format
HDCS_Data_Okeanos_March_2011_2011-252_0536_20110909_152512_EX1105_MB.txt.mb162 0.55MB Generic XYZ sounding format
HDCS_Data_Okeanos_March_2011_2011-252_0537_20110909_153142_EX1105_MB.txt.mb162 6.42MB Generic XYZ sounding format
HDCS_Data_Okeanos_March_2011_2011-252_0538_20110909_163142_EX1105_MB.txt.mb162 8.52MB Generic XYZ sounding format
HDCS_Data_Okeanos_March_2011_2011-252_0539_20110909_173141_EX1105_MB.txt.mb162 2.37MB Generic XYZ sounding format
HDCS_Data_Okeanos_March_2011_2011-252_0540_20110909_174425_EX1105_MB.txt.mb162 3.35MB Generic XYZ sounding format
HDCS_Data_Okeanos_March_2011_2011-252_0541_20110909_180202_EX1105_MB.txt.mb162 13.50MB Generic XYZ sounding format
HDCS_Data_Okeanos_March_2011_2011-252_0542_20110909_190203_EX1105_MB.txt.mb162 1.00MB Generic XYZ sounding format
HDCS_Data_Okeanos_March_2011_2011-252_0543_20110909_190522_EX1105_MB.txt.mb162 5.36MB Generic XYZ sounding format
HDCS_Data_Okeanos_March_2011_2011-252_0544_20110909_192917_EX1105_MB.txt.mb162 1.66MB Generic XYZ sounding format
HDCS_Data_Okeanos_March_2011_2011-252_0545_20110909_193700_EX1105_MB.txt.mb162 5.89MB Generic XYZ sounding format
HDCS_Data_Okeanos_March_2011_2011-252_0546_20110909_200053_EX1105_MB.txt.mb162 1.83MB Generic XYZ sounding format
HDCS_Data_Okeanos_March_2011_2011-252_0547_20110909_200829_EX1105_MB.txt.mb162 5.74MB Generic XYZ sounding format
HDCS_Data_Okeanos_March_2011_2011-252_0548_20110909_202858_EX1105_MB.txt.mb162 1.98MB Generic XYZ sounding format
HDCS_Data_Okeanos_March_2011_2011-252_0549_20110909_203650_EX1105_MB.txt.mb162 6.89MB Generic XYZ sounding format
HDCS_Data_Okeanos_March_2011_2011-252_0550_20110909_210017_EX1105_MB.txt.mb162 2.12MB Generic XYZ sounding format
HDCS_Data_Okeanos_March_2011_2011-252_0551_20110909_210806_EX1105_MB.txt.mb162 6.44MB Generic XYZ sounding format
HDCS_Data_Okeanos_March_2011_2011-252_0552_20110909_212851_EX1105_MB.txt.mb162 8.85MB Generic XYZ sounding format
HDCS_Data_Okeanos_March_2011_2011-252_0553_20110909_215711_EX1105_MB.txt.mb162 2.26MB Generic XYZ sounding format
HDCS_Data_Okeanos_March_2011_2011-252_0554_20110909_220459_EX1105_MB.txt.mb162 7.14MB Generic XYZ sounding format
HDCS_Data_Okeanos_March_2011_2011-252_0555_20110909_222621_EX1105_MB.txt.mb162 2.83MB Generic XYZ sounding format
HDCS_Data_Okeanos_March_2011_2011-252_0556_20110909_223508_EX1105_MB.txt.mb162 6.85MB Generic XYZ sounding format
HDCS_Data_Okeanos_March_2011_2011-252_0557_20110909_225530_EX1105_MB.txt.mb162 26.56MB Generic XYZ sounding format
HDCS_Data_Okeanos_March_2011_2011-252_0558_20110909_235529_EX1105_MB.txt.mb162 3.40MB Generic XYZ sounding format
HDCS_Data_Okeanos_March_2011_2011-253_0559_20110910_000159_EX1105_MB.txt.mb162 6.70MB Generic XYZ sounding format
HDCS_Data_Okeanos_March_2011_2011-253_0560_20110910_001207_EX1105_MB.txt.mb162 1.55MB Generic XYZ sounding format
HDCS_Data_Okeanos_March_2011_2011-253_0561_20110910_001509_EX1105_MB.txt.mb162 7.23MB Generic XYZ sounding format
HDCS_Data_Okeanos_March_2011_2011-253_0562_20110910_002622_EX1105_MB.txt.mb162 37.57MB Generic XYZ sounding format
HDCS_Data_Okeanos_March_2011_2011-253_0563_20110910_012622_EX1105_MB.txt.mb162 26.99MB Generic XYZ sounding format
HDCS_Data_Okeanos_March_2011_2011-253_0564_20110910_022622_EX1105_MB.txt.mb162 24.20MB Generic XYZ sounding format
HDCS_Data_Okeanos_March_2011_2011-253_0565_20110910_032623_EX1105_MB.txt.mb162 12.02MB Generic XYZ sounding format
HDCS_Data_Okeanos_March_2011_2011-253_0566_20110910_040652_EX1105_MB.txt.mb162 10.68MB Generic XYZ sounding format
HDCS_Data_Okeanos_March_2011_2011-253_0567_20110910_043635_EX1105_MB.txt.mb162 4.07MB Generic XYZ sounding format
HDCS_Data_Okeanos_March_2011_2011-253_0568_20110910_044346_EX1105_MB.txt.mb162 41.44MB Generic XYZ sounding format
HDCS_Data_Okeanos_March_2011_2011-253_0569_20110910_054346_EX1105_MB.txt.mb162 59.97MB Generic XYZ sounding format
HDCS_Data_Okeanos_March_2011_2011-253_0570_20110910_064346_EX1105_MB.txt.mb162 81.18MB Generic XYZ sounding format
HDCS_Data_Okeanos_March_2011_2011-253_0571_20110910_074346_EX1105_MB.txt.mb162 71.28MB Generic XYZ sounding format

Products: 18

Files File Size Description
EX1105_Bathymetry.pdf.gz 43.31MB PDF product
EX1105_Gas_Seeps_09Sept2011_JB_AllTgts_XYZ.txt.gz 7.8KB ASCII text product
EX1105_Geo_NorthernArea_25m.asc.gz 20.36MB ESRI Arc ASCII
EX1105_Geo_NorthernArea_25m.kmz.gz 52.27MB Compressed Keyhole Markup Language file
EX1105_Geo_NorthernArea_25m.sd.gz 29.14MB Fledermaus surface
EX1105_Geo_NorthernArea_25m.tif.gz 52.20MB GeoTIFF survey image
EX1105_Geo_NorthernArea_25m.xyz.gz 44.71MB xyz grid file provided by the originator
EX1105_Geo_OverView_100m.asc.gz 4.96MB ESRI Arc ASCII
EX1105_Geo_OverView_100m.kmz.gz 7.35MB Compressed Keyhole Markup Language file
EX1105_Geo_OverView_100m.sd.gz 6.51MB Fledermaus surface
EX1105_Geo_OverView_100m.tif.gz 7.37MB GeoTIFF survey image
EX1105_Geo_OverView_100m.xyz.gz 9.16MB xyz grid file provided by the originator
EX1105_Geo_SouthernArea_50m.asc.gz 3.76MB ESRI Arc ASCII
EX1105_Geo_SouthernArea_50m.kmz.gz 23.56MB Compressed Keyhole Markup Language file
EX1105_Geo_SouthernArea_50m.sd.gz 5.02MB Fledermaus surface
EX1105_Geo_SouthernArea_50m.tif.gz 23.52MB GeoTIFF survey image
EX1105_Geo_SouthernArea_50m.xyz.gz 7.16MB xyz grid file provided by the originator
EX1105_Overview.pdf.gz 3.02MB PDF product

Metadata Files: 11

Files File Size Description
EX1105_Multibeam.xml NCEI created ISO metadata
EX1105_Mapping_Data_Report.pdf 1.19MB PDF metadata file
EX1105_Cruise_Level.xml 3.1KB XML metadata file
EX1105_Gas_Seeps.xml 12.2KB XML metadata file
Level_2_Data_EX1105_ArcViewGrids.xml 61.3KB XML metadata file
Level_2_Data_EX1105_Geotiff.xml 61.5KB XML metadata file
Level_2_Data_EX1105_GoogleEarth_KMZ.xml 61.5KB XML metadata file
Level_2_Data_EX1105_IVS_sd_File.xml 61.2KB XML metadata file
Level_2_Data_EX1105_XYZ_of_Survey_Area.xml 61.7KB XML metadata file
v1_file_metadata.tar.gz 77.9KB File level metadata
v2_file_metadata.tar.gz 89.3KB File level metadata

Ancillary Files: 3

Files File Size Description
ctd.tar.gz 29.90MB Conductivity, Temperature, Depth (CTD) data
svp.tar.gz 106.8KB Sound Speed Profiles (SSP or SVP)
xbt.tar.gz 1.06MB Expendable Bathythermograph (XBT) data

Water Column Sonar Data

Water Column Sonar Data Available: WCSD Map Viewer